Time,TemperatureF,DewpointF,PressureIn,WindDirection,WindDirectionDegrees,WindSpeedMPH,WindSpeedGustMPH,Humidity,HourlyPrecipIn,Conditions,Clouds,dailyrainin,SoftwareType,DateUTC
2013-04-10 00:01:00,38.4,33.1,29.82,NE,44,2.0,2.0,81,0.00,,---,0.00,VWS V13.01,2013-04-10 06:01:00,
2013-04-10 00:03:00,38.4,33.1,29.82,NE,44,0.0,2.0,81,0.00,,---,0.00,VWS V13.01,2013-04-10 06:03:00,
2013-04-10 00:04:00,38.4,33.1,29.82,NE,44,2.0,2.0,81,0.00,,---,0.00,VWS V13.01,2013-04-10 06:04:00,
2013-04-10 00:06:00,38.4,33.1,29.82,NE,44,4.0,5.0,81,0.00,,---,0.00,VWS V13.01,2013-04-10 06:06:00,
2013-04-10 00:09:00,38.4,33.1,29.83,NE,44,3.0,5.0,81,0.00,,---,0.00,VWS V13.01,2013-04-10 06:09:00,
2013-04-10 00:10:00,38.4,33.1,29.83,NE,44,3.0,5.0,81,0.00,,---,0.00,VWS V13.01,2013-04-10 06:10:00,
2013-04-10 00:12:00,38.4,33.1,29.83,NE,45,5.0,5.0,81,0.00,,---,0.00,VWS V13.01,2013-04-10 06:12:00,
2013-04-10 00:14:00,38.4,33.1,29.83,NE,44,2.0,5.0,81,0.00,,---,0.00,VWS V13.01,2013-04-10 06:14:00,
2013-04-10 00:15:00,38.4,33.1,29.83,NE,45,2.0,2.0,81,0.00,,---,0.00,VWS V13.01,2013-04-10 06:15:00,
2013-04-10 00:19:00,38.4,33.1,29.83,NE,45,3.0,5.0,81,0.00,,---,0.00,VWS V13.01,2013-04-10 06:19:00,
2013-04-10 00:21:00,38.4,33.1,29.83,NE,45,3.0,5.0,81,0.00,,---,0.00,VWS V13.01,2013-04-10 06:21:00,
2013-04-10 00:22:00,38.4,33.1,29.83,NE,45,2.0,5.0,81,0.00,,---,0.00,VWS V13.01,2013-04-10 06:22:00,
2013-04-10 00:26:00,38.3,33.0,29.83,NE,45,0.0,5.0,81,0.00,,---,0.00,VWS V13.01,2013-04-10 06:26:00,
2013-04-10 00:27:00,38.2,32.9,29.83,NE,45,0.0,5.0,81,0.00,,---,0.00,VWS V13.01,2013-04-10 06:27:00,
2013-04-10 00:29:00,38.2,32.9,29.83,NE,45,0.0,5.0,81,0.00,,---,0.00,VWS V13.01,2013-04-10 06:29:00,
2013-04-10 00:33:00,38.1,32.8,29.83,NE,45,2.0,2.0,81,0.00,,---,0.00,VWS V13.01,2013-04-10 06:33:00,
2013-04-10 00:36:00,38.0,32.7,29.83,NE,45,1.0,2.0,81,0.00,,---,0.00,VWS V13.01,2013-04-10 06:36:00,
2013-04-10 00:37:00,38.0,32.7,29.83,NE,45,3.0,4.0,81,0.00,,---,0.00,VWS V13.01,2013-04-10 06:37:00,
2013-04-10 00:38:00,38.0,32.7,29.83,NE,45,1.0,4.0,81,0.00,,---,0.00,VWS V13.01,2013-04-10 06:38:00,
2013-04-10 00:41:00,37.9,32.9,29.83,NE,45,2.0,4.0,82,0.00,,---,0.00,VWS V13.01,2013-04-10 06:41:00,
2013-04-10 00:43:00,37.9,32.9,29.83,NE,45,2.0,4.0,82,0.00,,---,0.00,VWS V13.01,2013-04-10 06:43:00,
2013-04-10 00:45:00,37.9,32.9,29.83,NE,45,3.0,3.0,82,0.00,,---,0.00,VWS V13.01,2013-04-10 06:45:00,
2013-04-10 00:47:00,37.9,32.9,29.83,NE,45,0.0,3.0,82,0.00,,---,0.00,VWS V13.01,2013-04-10 06:47:00,
2013-04-10 00:49:00,37.9,32.9,29.83,NE,44,1.0,3.0,82,0.00,,---,0.00,VWS V13.01,2013-04-10 06:49:00,
2013-04-10 00:50:00,37.9,32.9,29.83,NE,45,4.0,4.0,82,0.00,,---,0.00,VWS V13.01,2013-04-10 06:50:00,
2013-04-10 00:54:00,37.8,32.8,29.83,NE,45,2.0,4.0,82,0.00,,---,0.00,VWS V13.01,2013-04-10 06:54:00,
2013-04-10 00:55:00,37.8,32.8,29.84,NE,45,3.0,4.0,82,0.00,,---,0.00,VWS V13.01,2013-04-10 06:55:00,
2013-04-10 00:57:00,37.8,32.8,29.83,NE,45,2.0,5.0,82,0.00,,---,0.00,VWS V13.01,2013-04-10 06:57:00,
2013-04-10 00:59:00,37.7,32.7,29.83,NE,45,2.0,5.0,82,0.00,,---,0.00,VWS V13.01,2013-04-10 06:59:00,
2013-04-10 01:01:00,37.7,32.7,29.84,NE,45,2.0,4.0,82,0.00,,---,0.00,VWS V13.01,2013-04-10 07:01:00,
2013-04-10 01:02:00,37.7,32.7,29.85,NE,45,3.0,4.0,82,0.00,,---,0.00,VWS V13.01,2013-04-10 07:02:00,
2013-04-10 01:03:00,37.6,32.6,29.85,NE,45,2.0,4.0,82,0.00,,---,0.00,VWS V13.01,2013-04-10 07:03:00,
2013-04-10 01:07:00,37.5,32.8,29.84,NE,45,3.0,4.0,83,0.00,,---,0.00,VWS V13.01,2013-04-10 07:07:00,
2013-04-10 01:09:00,37.3,32.6,29.84,NE,45,2.0,4.0,83,0.00,,---,0.00,VWS V13.01,2013-04-10 07:09:00,
2013-04-10 01:11:00,37.3,32.6,29.84,NE,45,1.0,4.0,83,0.00,,---,0.00,VWS V13.01,2013-04-10 07:11:00,
2013-04-10 01:14:00,37.1,32.4,29.85,NE,45,0.0,4.0,83,0.00,,---,0.00,VWS V13.01,2013-04-10 07:14:00,
2013-04-10 01:19:00,37.0,32.3,29.85,NE,45,1.0,1.0,83,0.00,,---,0.00,VWS V13.01,2013-04-10 07:19:00,
2013-04-10 01:21:00,36.9,32.2,29.85,NE,44,1.0,3.0,83,0.00,,---,0.00,VWS V13.01,2013-04-10 07:21:00,
2013-04-10 01:22:00,36.9,32.2,29.85,NE,45,2.0,3.0,83,0.00,,---,0.00,VWS V13.01,2013-04-10 07:22:00,
2013-04-10 01:23:00,36.8,32.1,29.85,NE,45,2.0,3.0,83,0.00,,---,0.00,VWS V13.01,2013-04-10 07:23:00,
2013-04-10 01:26:00,36.8,32.1,29.85,NE,45,2.0,3.0,83,0.00,,---,0.00,VWS V13.01,2013-04-10 07:26:00,
2013-04-10 01:28:00,36.8,32.4,29.85,NE,44,0.0,3.0,84,0.00,,---,0.00,VWS V13.01,2013-04-10 07:28:00,
2013-04-10 01:31:00,36.7,32.3,29.85,NE,45,2.0,3.0,84,0.00,,---,0.00,VWS V13.01,2013-04-10 07:31:00,
2013-04-10 01:33:00,36.7,32.3,29.85,NE,45,1.0,3.0,84,0.00,,---,0.00,VWS V13.01,2013-04-10 07:33:00,
2013-04-10 01:37:00,36.6,32.2,29.85,NE,45,0.0,3.0,84,0.00,,---,0.00,VWS V13.01,2013-04-10 07:37:00,
2013-04-10 01:38:00,36.6,32.2,29.85,NE,45,0.0,3.0,84,0.00,,---,0.00,VWS V13.01,2013-04-10 07:38:00,
2013-04-10 01:40:00,36.6,32.2,29.85,NE,44,3.0,4.0,84,0.00,,---,0.00,VWS V13.01,2013-04-10 07:40:00,
2013-04-10 01:43:00,36.6,32.2,29.85,NE,45,2.0,4.0,84,0.00,,---,0.00,VWS V13.01,2013-04-10 07:43:00,
2013-04-10 01:44:00,36.5,32.4,29.85,NE,44,1.0,4.0,85,0.00,,---,0.00,VWS V13.01,2013-04-10 07:44:00,
2013-04-10 01:47:00,36.5,32.4,29.85,NE,44,2.0,2.0,85,0.00,,---,0.00,VWS V13.01,2013-04-10 07:47:00,
2013-04-10 01:48:00,36.5,32.4,29.85,NE,44,1.0,3.0,85,0.00,,---,0.00,VWS V13.01,2013-04-10 07:48:00,
2013-04-10 01:49:00,36.5,32.4,29.85,NE,44,3.0,3.0,85,0.00,,---,0.00,VWS V13.01,2013-04-10 07:49:00,
2013-04-10 01:51:00,36.4,32.3,29.85,NE,44,2.0,4.0,85,0.00,,---,0.00,VWS V13.01,2013-04-10 07:51:00,
2013-04-10 01:54:00,36.4,32.3,29.86,NE,44,2.0,4.0,85,0.00,,---,0.00,VWS V13.01,2013-04-10 07:54:00,
2013-04-10 01:55:00,36.4,32.3,29.86,NE,44,0.0,4.0,85,0.00,,---,0.00,VWS V13.01,2013-04-10 07:55:00,
2013-04-10 01:59:00,36.3,32.2,29.86,NE,44,0.0,5.0,85,0.00,,---,0.00,VWS V13.01,2013-04-10 07:59:00,
2013-04-10 02:01:00,36.4,32.3,29.88,NE,44,2.0,2.0,85,0.00,,---,0.00,VWS V13.01,2013-04-10 08:01:00,
2013-04-10 02:04:00,36.4,32.6,29.88,NE,44,2.0,4.0,86,0.00,,---,0.00,VWS V13.01,2013-04-10 08:04:00,
2013-04-10 02:07:00,36.4,32.6,29.88,NE,44,2.0,4.0,86,0.00,,---,0.00,VWS V13.01,2013-04-10 08:07:00,
2013-04-10 02:08:00,36.4,32.6,29.88,NE,44,4.0,5.0,86,0.00,,---,0.00,VWS V13.01,2013-04-10 08:08:00,
2013-04-10 02:10:00,36.4,32.6,29.88,NE,44,2.0,5.0,86,0.00,,---,0.00,VWS V13.01,2013-04-10 08:10:00,
2013-04-10 02:13:00,36.5,32.7,29.87,NE,44,4.0,5.0,86,0.00,,---,0.00,VWS V13.01,2013-04-10 08:13:00,
2013-04-10 02:15:00,36.6,32.8,29.87,NE,44,3.0,3.0,86,0.00,,---,0.00,VWS V13.01,2013-04-10 08:15:00,
2013-04-10 02:16:00,36.6,32.8,29.87,NE,44,3.0,4.0,86,0.00,,---,0.00,VWS V13.01,2013-04-10 08:16:00,
2013-04-10 02:20:00,36.6,32.8,29.87,NE,42,4.0,6.0,86,0.00,,---,0.00,VWS V13.01,2013-04-10 08:20:00,
2013-04-10 02:24:00,36.8,33.0,29.87,NE,42,0.0,6.0,86,0.00,,---,0.00,VWS V13.01,2013-04-10 08:24:00,
2013-04-10 02:26:00,36.8,33.0,29.87,NE,42,1.0,6.0,86,0.00,,---,0.00,VWS V13.01,2013-04-10 08:26:00,
2013-04-10 02:27:00,36.8,33.0,29.87,NE,42,2.0,6.0,86,0.00,,---,0.00,VWS V13.01,2013-04-10 08:27:00,
2013-04-10 02:29:00,36.8,33.0,29.87,NE,42,2.0,6.0,86,0.00,,---,0.00,VWS V13.01,2013-04-10 08:29:00,
2013-04-10 02:31:00,36.9,33.1,29.87,NE,42,3.0,5.0,86,0.00,,---,0.00,VWS V13.01,2013-04-10 08:31:00,
2013-04-10 02:32:00,36.9,33.1,29.87,NE,42,4.0,5.0,86,0.00,,---,0.00,VWS V13.01,2013-04-10 08:32:00,
2013-04-10 02:36:00,37.0,33.2,29.87,NE,36,1.0,6.0,86,0.00,,---,0.00,VWS V13.01,2013-04-10 08:36:00,
2013-04-10 02:37:00,37.0,33.2,29.87,NE,35,5.0,6.0,86,0.00,,---,0.00,VWS V13.01,2013-04-10 08:37:00,
2013-04-10 02:38:00,37.1,33.3,29.87,NE,35,2.0,6.0,86,0.00,,---,0.00,VWS V13.01,2013-04-10 08:38:00,
2013-04-10 02:41:00,37.2,33.4,29.87,NE,35,3.0,6.0,86,0.00,,---,0.00,VWS V13.01,2013-04-10 08:41:00,
2013-04-10 02:42:00,37.2,33.4,29.87,NE,35,4.0,6.0,86,0.00,,---,0.00,VWS V13.01,2013-04-10 08:42:00,
2013-04-10 02:44:00,37.3,33.5,29.87,NNE,15,3.0,7.0,86,0.00,,---,0.00,VWS V13.01,2013-04-10 08:44:00,
2013-04-10 02:47:00,37.4,33.6,29.87,NNE,15,3.0,5.0,86,0.00,,---,0.00,VWS V13.01,2013-04-10 08:47:00,
2013-04-10 02:52:00,37.7,33.9,29.87,NNE,14,2.0,5.0,86,0.00,,---,0.00,VWS V13.01,2013-04-10 08:52:00,
2013-04-10 02:53:00,37.7,33.9,29.87,NNE,15,4.0,5.0,86,0.00,,---,0.00,VWS V13.01,2013-04-10 08:53:00,
2013-04-10 02:55:00,37.8,33.7,29.87,NNE,15,4.0,5.0,85,0.00,,---,0.00,VWS V13.01,2013-04-10 08:55:00,
2013-04-10 03:00:00,37.8,33.7,29.86,North,360,3.0,3.0,85,0.00,,---,0.00,VWS V13.01,2013-04-10 09:00:00,
2013-04-10 03:02:00,37.9,33.5,29.86,North,5,4.0,5.0,84,0.00,,---,0.00,VWS V13.01,2013-04-10 09:02:00,
2013-04-10 03:03:00,37.9,33.5,29.86,North,5,2.0,5.0,84,0.00,,---,0.00,VWS V13.01,2013-04-10 09:03:00,
2013-04-10 03:05:00,37.9,33.5,29.85,North,5,4.0,5.0,84,0.00,,---,0.00,VWS V13.01,2013-04-10 09:05:00,
2013-04-10 03:07:00,37.8,33.1,29.85,North,5,3.0,6.0,83,0.00,,---,0.00,VWS V13.01,2013-04-10 09:07:00,
2013-04-10 03:09:00,37.8,33.1,29.85,North,360,5.0,7.0,83,0.00,,---,0.00,VWS V13.01,2013-04-10 09:09:00,
2013-04-10 03:10:00,37.8,33.1,29.85,North,360,3.0,7.0,83,0.00,,---,0.00,VWS V13.01,2013-04-10 09:10:00,
2013-04-10 03:13:00,37.8,32.8,29.85,North,360,6.0,7.0,82,0.00,,---,0.00,VWS V13.01,2013-04-10 09:13:00,
2013-04-10 03:14:00,37.8,32.8,29.85,North,355,6.0,9.0,82,0.00,,---,0.00,VWS V13.01,2013-04-10 09:14:00,
2013-04-10 03:16:00,37.8,32.5,29.86,North,355,4.0,6.0,81,0.00,,---,0.00,VWS V13.01,2013-04-10 09:16:00,
2013-04-10 03:18:00,37.7,32.4,29.86,North,355,2.0,6.0,81,0.00,,---,0.00,VWS V13.01,2013-04-10 09:18:00,
2013-04-10 03:19:00,37.7,32.4,29.86,North,355,4.0,6.0,81,0.00,,---,0.00,VWS V13.01,2013-04-10 09:19:00,
2013-04-10 03:23:00,37.7,32.4,29.86,North,355,4.0,6.0,81,0.00,,---,0.00,VWS V13.01,2013-04-10 09:23:00,
2013-04-10 03:26:00,37.6,32.0,29.86,North,355,2.0,6.0,80,0.00,,---,0.00,VWS V13.01,2013-04-10 09:26:00,
2013-04-10 03:29:00,37.6,32.0,29.86,North,355,5.0,6.0,80,0.00,,---,0.00,VWS V13.01,2013-04-10 09:29:00,
2013-04-10 03:31:00,37.6,32.0,29.86,North,355,4.0,6.0,80,0.00,,---,0.00,VWS V13.01,2013-04-10 09:31:00,
2013-04-10 03:33:00,37.6,32.0,29.87,North,355,2.0,6.0,80,0.00,,---,0.00,VWS V13.01,2013-04-10 09:33:00,
2013-04-10 03:34:00,37.6,32.0,29.86,North,355,3.0,6.0,80,0.00,,---,0.00,VWS V13.01,2013-04-10 09:34:00,
2013-04-10 03:38:00,37.6,32.0,29.86,North,355,3.0,6.0,80,0.00,,---,0.00,VWS V13.01,2013-04-10 09:38:00,
2013-04-10 03:42:00,37.6,32.0,29.86,North,355,5.0,6.0,80,0.00,,---,0.00,VWS V13.01,2013-04-10 09:42:00,
2013-04-10 03:44:00,37.7,32.1,29.86,North,355,1.0,6.0,80,0.00,,---,0.00,VWS V13.01,2013-04-10 09:44:00,
2013-04-10 03:47:00,37.7,32.1,29.86,North,355,1.0,4.0,80,0.00,,---,0.00,VWS V13.01,2013-04-10 09:47:00,
2013-04-10 03:48:00,37.7,32.1,29.86,North,355,2.0,4.0,80,0.00,,---,0.00,VWS V13.01,2013-04-10 09:48:00,
2013-04-10 03:49:00,37.7,32.1,29.87,North,355,0.0,4.0,80,0.00,,---,0.00,VWS V13.01,2013-04-10 09:49:00,
2013-04-10 03:52:00,37.7,31.8,29.87,North,355,0.0,4.0,79,0.00,,---,0.00,VWS V13.01,2013-04-10 09:52:00,
2013-04-10 03:53:00,37.6,31.7,29.87,North,355,0.0,4.0,79,0.00,,---,0.00,VWS V13.01,2013-04-10 09:53:00,
2013-04-10 03:58:00,37.6,31.7,29.86,North,355,0.0,4.0,79,0.00,,---,0.00,VWS V13.01,2013-04-10 09:58:00,
2013-04-10 03:59:00,37.5,31.6,29.87,North,355,0.0,4.0,79,0.00,,---,0.00,VWS V13.01,2013-04-10 09:59:00,
2013-04-10 04:00:00,37.5,31.6,29.87,North,355,0.0,0.0,79,0.00,,---,0.00,VWS V13.01,2013-04-10 10:00:00,
2013-04-10 04:04:00,37.5,31.6,29.89,North,355,3.0,3.0,79,0.00,,---,0.00,VWS V13.01,2013-04-10 10:04:00,
2013-04-10 04:07:00,37.4,31.5,29.89,North,355,1.0,3.0,79,0.00,,---,0.00,VWS V13.01,2013-04-10 10:07:00,
2013-04-10 04:12:00,37.3,31.4,29.90,North,355,0.0,5.0,79,0.00,,---,0.00,VWS V13.01,2013-04-10 10:12:00,
2013-04-10 04:13:00,37.3,31.4,29.90,North,355,2.0,5.0,79,0.00,,---,0.00,VWS V13.01,2013-04-10 10:13:00,
2013-04-10 04:14:00,37.3,31.4,29.90,North,355,2.0,5.0,79,0.00,,---,0.00,VWS V13.01,2013-04-10 10:14:00,
2013-04-10 04:19:00,37.3,31.4,29.90,North,355,2.0,3.0,79,0.00,,---,0.00,VWS V13.01,2013-04-10 10:19:00,
2013-04-10 04:20:00,37.3,31.4,29.90,North,355,5.0,6.0,79,0.00,,---,0.00,VWS V13.01,2013-04-10 10:20:00,
2013-04-10 04:21:00,37.2,31.3,29.90,NNW,347,5.0,10.0,79,0.00,,---,0.00,VWS V13.01,2013-04-10 10:21:00,
2013-04-10 04:23:00,37.3,31.1,29.90,NW,325,10.0,11.0,78,0.00,,---,0.00,VWS V13.01,2013-04-10 10:23:00,
2013-04-10 04:25:00,37.3,31.1,29.90,NW,312,5.0,13.0,78,0.00,,---,0.00,VWS V13.01,2013-04-10 10:25:00,
2013-04-10 04:26:00,37.3,31.1,29.90,NW,321,6.0,13.0,78,0.00,,---,0.00,VWS V13.01,2013-04-10 10:26:00,
2013-04-10 04:28:00,37.3,30.8,29.90,NW,304,6.0,13.0,77,0.00,,---,0.00,VWS V13.01,2013-04-10 10:28:00,
2013-04-10 04:31:00,37.3,30.8,29.90,NNW,330,4.0,9.0,77,0.00,,---,0.00,VWS V13.01,2013-04-10 10:31:00,
2013-04-10 04:32:00,37.3,30.8,29.90,NNW,327,2.0,9.0,77,0.00,,---,0.00,VWS V13.01,2013-04-10 10:32:00,
2013-04-10 04:33:00,37.3,30.8,29.90,NW,325,8.0,9.0,77,0.00,,---,0.00,VWS V13.01,2013-04-10 10:33:00,
2013-04-10 04:37:00,37.2,30.4,29.89,NW,306,10.0,14.0,76,0.00,,---,0.00,VWS V13.01,2013-04-10 10:37:00,
2013-04-10 04:39:00,37.1,30.2,29.89,NW,319,5.0,14.0,76,0.00,,---,0.00,VWS V13.01,2013-04-10 10:39:00,
2013-04-10 04:43:00,37.1,29.9,29.89,NW,307,11.0,14.0,75,0.00,,---,0.00,VWS V13.01,2013-04-10 10:43:00,
2013-04-10 04:44:00,37.1,29.9,29.89,NW,307,4.0,15.0,75,0.00,,---,0.00,VWS V13.01,2013-04-10 10:44:00,
2013-04-10 04:45:00,37.0,29.8,29.89,WNW,298,4.0,13.0,75,0.00,,---,0.00,VWS V13.01,2013-04-10 10:45:00,
2013-04-10 04:50:00,37.0,29.8,29.89,NW,313,8.0,13.0,75,0.00,,---,0.00,VWS V13.01,2013-04-10 10:50:00,
2013-04-10 04:51:00,36.9,29.7,29.89,NNW,327,9.0,13.0,75,0.00,,---,0.00,VWS V13.01,2013-04-10 10:51:00,
2013-04-10 04:52:00,36.9,29.7,29.89,NW,315,9.0,13.0,75,0.00,,---,0.00,VWS V13.01,2013-04-10 10:52:00,
2013-04-10 04:53:00,36.9,29.7,29.89,NW,315,5.0,13.0,75,0.00,,---,0.00,VWS V13.01,2013-04-10 10:53:00,
2013-04-10 04:55:00,36.9,29.7,29.89,NW,315,6.0,13.0,75,0.00,,---,0.00,VWS V13.01,2013-04-10 10:55:00,
2013-04-10 04:58:00,36.8,29.6,29.90,WNW,301,5.0,13.0,75,0.00,,---,0.00,VWS V13.01,2013-04-10 10:58:00,
2013-04-10 05:00:00,36.8,29.6,29.89,WNW,299,4.0,10.0,75,0.00,,---,0.00,VWS V13.01,2013-04-10 11:00:00,
2013-04-10 05:03:00,36.7,29.2,29.87,NW,326,6.0,13.0,74,0.00,,---,0.00,VWS V13.01,2013-04-10 11:03:00,
2013-04-10 05:04:00,36.6,29.1,29.87,NW,306,6.0,13.0,74,0.00,,---,0.00,VWS V13.01,2013-04-10 11:04:00,
2013-04-10 05:05:00,36.6,29.1,29.87,WNW,299,5.0,13.0,74,0.00,,---,0.00,VWS V13.01,2013-04-10 11:05:00,
2013-04-10 05:10:00,36.4,28.6,29.88,NW,311,8.0,13.0,73,0.00,,---,0.00,VWS V13.01,2013-04-10 11:10:00,
2013-04-10 05:12:00,36.4,28.6,29.88,WNW,302,7.0,13.0,73,0.00,,---,0.00,VWS V13.01,2013-04-10 11:12:00,
2013-04-10 05:13:00,36.4,28.6,29.88,NW,325,6.0,13.0,73,0.00,,---,0.00,VWS V13.01,2013-04-10 11:13:00,
2013-04-10 05:16:00,36.3,28.5,29.89,NW,325,7.0,9.0,73,0.00,,---,0.00,VWS V13.01,2013-04-10 11:16:00,
2013-04-10 05:19:00,36.3,28.5,29.89,NW,326,9.0,9.0,73,0.00,,---,0.00,VWS V13.01,2013-04-10 11:19:00,
2013-04-10 05:23:00,36.2,28.7,29.89,WNW,302,6.0,10.0,74,0.00,,---,0.00,VWS V13.01,2013-04-10 11:23:00,
2013-04-10 05:25:00,36.2,28.7,29.89,NW,321,5.0,10.0,74,0.00,,---,0.00,VWS V13.01,2013-04-10 11:25:00,
2013-04-10 05:27:00,36.1,28.6,29.89,NW,309,9.0,10.0,74,0.00,,---,0.00,VWS V13.01,2013-04-10 11:27:00,
2013-04-10 05:29:00,36.1,28.6,29.89,NNW,334,5.0,12.0,74,0.00,,---,0.00,VWS V13.01,2013-04-10 11:29:00,
2013-04-10 05:30:00,36.1,28.6,29.89,NNW,333,5.0,5.0,74,0.00,,---,0.00,VWS V13.01,2013-04-10 11:30:00,
2013-04-10 05:33:00,36.0,28.2,29.90,NNW,329,9.0,13.0,73,0.00,,---,0.00,VWS V13.01,2013-04-10 11:33:00,
2013-04-10 05:36:00,36.0,28.2,29.90,NW,320,5.0,13.0,73,0.00,,---,0.00,VWS V13.01,2013-04-10 11:36:00,
2013-04-10 05:38:00,35.9,28.1,29.90,NW,312,2.0,13.0,73,0.00,,---,0.00,VWS V13.01,2013-04-10 11:38:00,
2013-04-10 05:39:00,35.9,28.1,29.90,NW,313,7.0,13.0,73,0.00,,---,0.00,VWS V13.01,2013-04-10 11:39:00,
2013-04-10 05:40:00,35.9,28.1,29.90,NW,304,4.0,13.0,73,0.00,,---,0.00,VWS V13.01,2013-04-10 11:40:00,
2013-04-10 05:44:00,35.7,27.9,29.90,NW,312,3.0,13.0,73,0.00,,---,0.00,VWS V13.01,2013-04-10 11:44:00,
2013-04-10 05:46:00,35.7,27.9,29.90,NW,312,3.0,4.0,73,0.00,,---,0.00,VWS V13.01,2013-04-10 11:46:00,
2013-04-10 05:48:00,35.6,27.8,29.90,NW,320,5.0,7.0,73,0.00,,---,0.00,VWS V13.01,2013-04-10 11:48:00,
2013-04-10 05:49:00,35.6,27.8,29.90,NW,320,6.0,7.0,73,0.00,,---,0.00,VWS V13.01,2013-04-10 11:49:00,
2013-04-10 05:50:00,35.6,27.8,29.90,NW,321,6.0,7.0,73,0.00,,---,0.00,VWS V13.01,2013-04-10 11:50:00,
2013-04-10 05:55:00,35.5,27.7,29.90,NW,325,7.0,10.0,73,0.00,,---,0.00,VWS V13.01,2013-04-10 11:55:00,
2013-04-10 05:56:00,35.4,27.6,29.90,NW,325,4.0,10.0,73,0.00,,---,0.00,VWS V13.01,2013-04-10 11:56:00,
2013-04-10 05:57:00,35.4,27.6,29.90,NW,323,3.0,10.0,73,0.00,,---,0.00,VWS V13.01,2013-04-10 11:57:00,
2013-04-10 06:02:00,35.3,27.5,29.90,NNW,329,6.0,11.0,73,0.00,,---,0.00,VWS V13.01,2013-04-10 12:02:00,
2013-04-10 06:03:00,35.3,27.5,29.90,NW,325,6.0,11.0,73,0.00,,---,0.00,VWS V13.01,2013-04-10 12:03:00,
2013-04-10 06:04:00,35.2,27.4,29.90,NNW,327,5.0,11.0,73,0.00,,---,0.00,VWS V13.01,2013-04-10 12:04:00,
2013-04-10 06:09:00,35.2,27.1,29.91,NW,304,6.0,14.0,72,0.00,,---,0.00,VWS V13.01,2013-04-10 12:09:00,
2013-04-10 06:12:00,35.2,27.1,29.91,NW,312,7.0,14.0,72,0.00,,---,0.00,VWS V13.01,2013-04-10 12:12:00,
2013-04-10 06:14:00,35.2,27.1,29.91,NW,319,12.0,15.0,72,0.00,,---,0.00,VWS V13.01,2013-04-10 12:14:00,
2013-04-10 06:15:00,35.2,27.1,29.91,NW,320,10.0,10.0,72,0.00,,---,0.00,VWS V13.01,2013-04-10 12:15:00,
2013-04-10 06:20:00,35.2,26.8,29.91,NW,319,6.0,15.0,71,0.00,,---,0.00,VWS V13.01,2013-04-10 12:20:00,
2013-04-10 06:24:00,35.1,26.3,29.91,NW,307,11.0,15.0,70,0.00,,---,0.00,VWS V13.01,2013-04-10 12:24:00,
2013-04-10 06:26:00,35.1,26.3,29.91,NW,325,8.0,15.0,70,0.00,,---,0.00,VWS V13.01,2013-04-10 12:26:00,
2013-04-10 06:31:00,35.0,25.9,29.91,WNW,299,4.0,12.0,69,0.00,,---,0.00,VWS V13.01,2013-04-10 12:31:00,
2013-04-10 06:33:00,35.0,25.9,29.91,NNW,330,6.0,12.0,69,0.00,,---,0.00,VWS V13.01,2013-04-10 12:33:00,
2013-04-10 06:38:00,34.8,25.7,29.91,NW,325,14.0,14.0,69,0.00,,---,0.00,VWS V13.01,2013-04-10 12:38:00,
2013-04-10 06:39:00,34.8,25.7,29.91,NW,309,6.0,15.0,69,0.00,,---,0.00,VWS V13.01,2013-04-10 12:39:00,
2013-04-10 06:41:00,34.7,25.2,29.92,NW,317,4.0,15.0,68,0.00,,---,0.00,VWS V13.01,2013-04-10 12:41:00,
2013-04-10 06:44:00,34.8,25.3,29.92,NNW,333,5.0,15.0,68,0.00,,---,0.00,VWS V13.01,2013-04-10 12:44:00,
2013-04-10 06:45:00,34.7,25.2,29.92,NW,323,9.0,9.0,68,0.00,,---,0.00,VWS V13.01,2013-04-10 12:45:00,
2013-04-10 06:48:00,34.8,25.3,29.92,West,281,12.0,13.0,68,0.00,,---,0.00,VWS V13.01,2013-04-10 12:48:00,
2013-04-10 06:50:00,34.7,24.9,29.92,WNW,303,9.0,13.0,67,0.00,,---,0.00,VWS V13.01,2013-04-10 12:50:00,
2013-04-10 06:52:00,34.7,24.5,29.92,NW,315,3.0,13.0,66,0.00,,---,0.00,VWS V13.01,2013-04-10 12:52:00,
2013-04-10 06:54:00,34.8,24.6,29.93,NW,318,6.0,13.0,66,0.00,,---,0.00,VWS V13.01,2013-04-10 12:54:00,
2013-04-10 06:55:00,34.8,24.6,29.93,NW,312,5.0,13.0,66,0.00,,---,0.00,VWS V13.01,2013-04-10 12:55:00,
2013-04-10 06:58:00,34.8,24.6,29.93,NW,311,4.0,13.0,66,0.00,,---,0.00,VWS V13.01,2013-04-10 12:58:00,
2013-04-10 07:00:00,34.8,24.6,29.93,NW,322,7.0,7.0,66,0.00,,---,0.00,VWS V13.01,2013-04-10 13:00:00,
2013-04-10 07:03:00,34.7,24.1,29.96,NNW,329,9.0,17.0,65,0.00,,---,0.00,VWS V13.01,2013-04-10 13:03:00,
2013-04-10 07:05:00,34.6,24.1,29.96,WNW,296,7.0,17.0,65,0.00,,---,0.00,VWS V13.01,2013-04-10 13:05:00,
2013-04-10 07:07:00,34.6,23.7,29.96,NW,323,13.0,17.0,64,0.00,,---,0.00,VWS V13.01,2013-04-10 13:07:00,
2013-04-10 07:08:00,34.6,24.1,29.96,NW,309,9.0,17.0,65,0.00,,---,0.00,VWS V13.01,2013-04-10 13:08:00,
2013-04-10 07:10:00,34.6,23.7,29.96,NNW,336,7.0,17.0,64,0.00,,---,0.00,VWS V13.01,2013-04-10 13:10:00,
2013-04-10 07:12:00,34.5,23.6,29.96,WNW,301,10.0,17.0,64,0.00,,---,0.00,VWS V13.01,2013-04-10 13:12:00,
2013-04-10 07:14:00,34.6,23.3,29.96,NW,309,7.0,17.0,63,0.00,,---,0.00,VWS V13.01,2013-04-10 13:14:00,
2013-04-10 07:15:00,34.5,23.2,29.96,NNW,332,11.0,11.0,63,0.00,,---,0.00,VWS V13.01,2013-04-10 13:15:00,
2013-04-10 07:20:00,34.4,22.7,29.96,WNW,292,8.0,15.0,62,0.00,,---,0.00,VWS V13.01,2013-04-10 13:20:00,
2013-04-10 07:23:00,34.4,22.0,29.96,NW,325,7.0,16.0,60,0.00,,---,0.00,VWS V13.01,2013-04-10 13:23:00,
2013-04-10 07:25:00,34.4,22.0,29.97,NNW,329,12.0,17.0,60,0.00,,---,0.00,VWS V13.01,2013-04-10 13:25:00,
2013-04-10 07:26:00,34.4,22.0,29.97,NW,325,14.0,17.0,60,0.00,,---,0.00,VWS V13.01,2013-04-10 13:26:00,
2013-04-10 07:29:00,34.4,22.0,29.97,NW,315,11.0,17.0,60,0.00,,---,0.00,VWS V13.01,2013-04-10 13:29:00,
2013-04-10 07:30:00,34.4,22.0,29.97,NNW,329,9.0,11.0,60,0.00,,---,0.00,VWS V13.01,2013-04-10 13:30:00,
2013-04-10 07:31:00,34.4,22.0,29.97,NW,325,9.0,11.0,60,0.00,,---,0.00,VWS V13.01,2013-04-10 13:31:00,
2013-04-10 07:35:00,34.4,21.6,29.97,NW,305,3.0,15.0,59,0.00,,---,0.00,VWS V13.01,2013-04-10 13:35:00,
2013-04-10 07:36:00,34.4,21.6,29.97,NW,315,13.0,16.0,59,0.00,,---,0.00,VWS V13.01,2013-04-10 13:36:00,
2013-04-10 07:39:00,34.4,21.6,29.97,NNW,337,12.0,16.0,59,0.00,,---,0.00,VWS V13.01,2013-04-10 13:39:00,
2013-04-10 07:41:00,34.5,22.1,29.97,NNW,327,6.0,16.0,60,0.00,,---,0.00,VWS V13.01,2013-04-10 13:41:00,
2013-04-10 07:44:00,34.5,21.7,29.97,NW,315,8.0,16.0,59,0.00,,---,0.00,VWS V13.01,2013-04-10 13:44:00,
2013-04-10 07:46:00,34.4,21.6,29.98,NNW,344,7.0,12.0,59,0.00,,---,0.00,VWS V13.01,2013-04-10 13:46:00,
2013-04-10 07:48:00,34.4,21.6,29.98,NW,326,10.0,17.0,59,0.00,,---,0.00,VWS V13.01,2013-04-10 13:48:00,
2013-04-10 07:50:00,34.4,21.6,29.98,NNW,329,4.0,17.0,59,0.00,,---,0.00,VWS V13.01,2013-04-10 13:50:00,
2013-04-10 07:53:00,34.4,21.6,29.98,NNW,328,11.0,17.0,59,0.00,,---,0.00,VWS V13.01,2013-04-10 13:53:00,
2013-04-10 07:54:00,34.4,21.6,29.98,NW,315,11.0,17.0,59,0.00,,---,0.00,VWS V13.01,2013-04-10 13:54:00,
2013-04-10 07:56:00,34.4,21.6,29.98,NNW,333,16.0,17.0,59,0.00,,---,0.00,VWS V13.01,2013-04-10 13:56:00,
2013-04-10 07:58:00,34.4,21.2,29.98,NNW,336,11.0,18.0,58,0.00,,---,0.00,VWS V13.01,2013-04-10 13:58:00,
2013-04-10 07:59:00,34.4,20.8,29.98,NNW,333,4.0,18.0,57,0.00,,---,0.00,VWS V13.01,2013-04-10 13:59:00,
2013-04-10 08:03:00,34.5,20.9,29.98,WNW,295,10.0,14.0,57,0.00,,---,0.00,VWS V13.01,2013-04-10 14:03:00,
2013-04-10 08:04:00,34.6,21.0,29.98,WNW,299,6.0,14.0,57,0.00,,---,0.00,VWS V13.01,2013-04-10 14:04:00,
2013-04-10 08:05:00,34.7,20.6,29.98,NW,315,13.0,14.0,56,0.00,,---,0.00,VWS V13.01,2013-04-10 14:05:00,
2013-04-10 08:06:00,34.7,20.6,29.98,NNW,329,10.0,15.0,56,0.00,,---,0.00,VWS V13.01,2013-04-10 14:06:00,
2013-04-10 08:08:00,34.9,20.8,29.98,WNW,298,15.0,15.0,56,0.00,,---,0.00,VWS V13.01,2013-04-10 14:08:00,
2013-04-10 08:10:00,35.0,20.9,29.98,NW,319,4.0,15.0,56,0.00,,---,0.00,VWS V13.01,2013-04-10 14:10:00,
2013-04-10 08:12:00,35.1,20.6,29.98,NNW,329,10.0,15.0,55,0.00,,---,0.00,VWS V13.01,2013-04-10 14:12:00,
2013-04-10 08:14:00,35.2,20.7,29.98,NNW,329,15.0,15.0,55,0.00,,---,0.00,VWS V13.01,2013-04-10 14:14:00,
2013-04-10 08:16:00,35.3,20.8,29.98,NNW,337,10.0,15.0,55,0.00,,---,0.00,VWS V13.01,2013-04-10 14:16:00,
2013-04-10 08:19:00,35.5,20.5,29.97,NNW,342,9.0,17.0,54,0.00,,---,0.00,VWS V13.01,2013-04-10 14:19:00,
2013-04-10 08:20:00,35.5,20.5,29.97,NNW,329,13.0,17.0,54,0.00,,---,0.00,VWS V13.01,2013-04-10 14:20:00,
2013-04-10 08:23:00,35.6,20.2,29.97,NNW,338,10.0,18.0,53,0.00,,---,0.00,VWS V13.01,2013-04-10 14:23:00,
2013-04-10 08:24:00,35.7,20.3,29.97,NW,307,9.0,18.0,53,0.00,,---,0.00,VWS V13.01,2013-04-10 14:24:00,
2013-04-10 08:26:00,35.7,20.3,29.97,NNW,333,10.0,18.0,53,0.00,,---,0.00,VWS V13.01,2013-04-10 14:26:00,
2013-04-10 08:28:00,35.8,19.9,29.97,NNW,338,15.0,18.0,52,0.00,,---,0.00,VWS V13.01,2013-04-10 14:28:00,
2013-04-10 08:31:00,35.9,20.0,29.97,WNW,296,13.0,16.0,52,0.00,,---,0.00,VWS V13.01,2013-04-10 14:31:00,
2013-04-10 08:33:00,36.0,20.1,29.97,NW,311,16.0,21.0,52,0.00,,---,0.00,VWS V13.01,2013-04-10 14:33:00,
2013-04-10 08:36:00,36.1,20.2,29.97,NW,313,15.0,21.0,52,0.00,,---,0.00,VWS V13.01,2013-04-10 14:36:00,
2013-04-10 08:38:00,36.1,20.2,29.97,NW,312,9.0,21.0,52,0.00,,---,0.00,VWS V13.01,2013-04-10 14:38:00,
2013-04-10 08:40:00,36.2,20.3,29.97,NNW,337,6.0,21.0,52,0.00,,---,0.00,VWS V13.01,2013-04-10 14:40:00,
2013-04-10 08:42:00,36.3,20.4,29.97,NNW,340,10.0,21.0,52,0.00,,---,0.00,VWS V13.01,2013-04-10 14:42:00,
2013-04-10 08:44:00,36.4,20.5,29.98,NNW,330,5.0,21.0,52,0.00,,---,0.00,VWS V13.01,2013-04-10 14:44:00,
2013-04-10 08:49:00,36.7,20.3,29.97,NNW,333,16.0,17.0,51,0.00,,---,0.00,VWS V13.01,2013-04-10 14:49:00,
2013-04-10 08:50:00,36.7,20.3,29.97,NNW,338,8.0,17.0,51,0.00,,---,0.00,VWS V13.01,2013-04-10 14:50:00,
2013-04-10 08:52:00,36.6,20.2,29.97,NW,322,12.0,17.0,51,0.00,,---,0.00,VWS V13.01,2013-04-10 14:52:00,
2013-04-10 08:53:00,36.6,20.2,29.97,NNW,333,9.0,17.0,51,0.00,,---,0.00,VWS V13.01,2013-04-10 14:53:00,
2013-04-10 08:54:00,36.6,20.2,29.97,NNW,338,10.0,17.0,51,0.00,,---,0.00,VWS V13.01,2013-04-10 14:54:00,
2013-04-10 08:58:00,36.6,20.2,29.97,NW,325,8.0,17.0,51,0.00,,---,0.00,VWS V13.01,2013-04-10 14:58:00,
2013-04-10 08:59:00,36.6,19.7,29.97,NW,311,12.0,17.0,50,0.00,,---,0.00,VWS V13.01,2013-04-10 14:59:00,
2013-04-10 09:00:00,36.7,19.8,29.98,NNW,328,13.0,13.0,50,0.00,,---,0.00,VWS V13.01,2013-04-10 15:00:00,
2013-04-10 09:03:00,36.6,19.7,29.98,NW,321,8.0,15.0,50,0.00,,---,0.00,VWS V13.01,2013-04-10 15:03:00,
2013-04-10 09:04:00,36.6,19.3,29.98,NW,323,15.0,15.0,49,0.00,,---,0.00,VWS V13.01,2013-04-10 15:04:00,
2013-04-10 09:08:00,36.5,19.2,29.98,NNW,331,7.0,18.0,49,0.00,,---,0.00,VWS V13.01,2013-04-10 15:08:00,
2013-04-10 09:09:00,36.5,19.2,29.98,NNW,330,6.0,18.0,49,0.00,,---,0.00,VWS V13.01,2013-04-10 15:09:00,
2013-04-10 09:12:00,36.6,19.3,29.98,NNW,336,9.0,18.0,49,0.00,,---,0.00,VWS V13.01,2013-04-10 15:12:00,
2013-04-10 09:14:00,36.8,19.5,29.98,NNW,336,4.0,5.0,49,0.00,,---,0.00,VWS V13.01,2013-04-10 15:14:00,
2013-04-10 09:15:00,36.8,19.5,29.98,NNW,333,5.0,8.0,49,0.00,,---,0.00,VWS V13.01,2013-04-10 15:15:00,
2013-04-10 09:18:00,36.9,19.5,29.98,NNW,333,8.0,13.0,49,0.00,,---,0.00,VWS V13.01,2013-04-10 15:18:00,
2013-04-10 09:19:00,36.9,19.5,29.98,NNW,345,7.0,13.0,49,0.00,,---,0.00,VWS V13.01,2013-04-10 15:19:00,
2013-04-10 09:20:00,37.0,19.6,29.98,North,355,4.0,13.0,49,0.00,,---,0.00,VWS V13.01,2013-04-10 15:20:00,
2013-04-10 09:24:00,37.1,19.7,29.98,NNW,330,10.0,13.0,49,0.00,,---,0.00,VWS V13.01,2013-04-10 15:24:00,
2013-04-10 09:26:00,37.1,19.7,29.98,NW,324,7.0,13.0,49,0.00,,---,0.00,VWS V13.01,2013-04-10 15:26:00,
2013-04-10 09:28:00,37.2,19.8,29.98,NW,319,9.0,13.0,49,0.00,,---,0.00,VWS V13.01,2013-04-10 15:28:00,
2013-04-10 09:29:00,37.2,19.3,29.98,NNW,332,6.0,13.0,48,0.00,,---,0.00,VWS V13.01,2013-04-10 15:29:00,
2013-04-10 09:35:00,37.1,19.2,29.98,NW,318,1.0,14.0,48,0.00,,---,0.00,VWS V13.01,2013-04-10 15:35:00,
2013-04-10 09:36:00,37.2,19.8,29.98,NW,304,7.0,14.0,49,0.00,,---,0.00,VWS V13.01,2013-04-10 15:36:00,
2013-04-10 09:37:00,37.3,19.4,29.98,NNE,28,5.0,14.0,48,0.00,,---,0.00,VWS V13.01,2013-04-10 15:37:00,
2013-04-10 09:41:00,37.6,19.7,29.98,NNW,338,2.0,14.0,48,0.00,,---,0.00,VWS V13.01,2013-04-10 15:41:00,
2013-04-10 09:42:00,37.7,19.8,29.98,NNW,338,5.0,14.0,48,0.00,,---,0.00,VWS V13.01,2013-04-10 15:42:00,
2013-04-10 09:43:00,37.7,19.8,29.98,NNW,339,4.0,14.0,48,0.00,,---,0.00,VWS V13.01,2013-04-10 15:43:00,
2013-04-10 09:46:00,38.0,20.1,29.97,North,351,4.0,10.0,48,0.00,,---,0.00,VWS V13.01,2013-04-10 15:46:00,
2013-04-10 09:48:00,38.2,19.8,29.97,NE,46,9.0,10.0,47,0.00,,---,0.00,VWS V13.01,2013-04-10 15:48:00,
2013-04-10 09:49:00,38.4,19.9,29.97,NE,36,5.0,10.0,47,0.00,,---,0.00,VWS V13.01,2013-04-10 15:49:00,
2013-04-10 09:53:00,38.7,20.2,29.96,North,5,4.0,10.0,47,0.00,,---,0.00,VWS V13.01,2013-04-10 15:53:00,
2013-04-10 09:54:00,38.9,20.4,29.96,North,5,3.0,10.0,47,0.00,,---,0.00,VWS V13.01,2013-04-10 15:54:00,
2013-04-10 09:56:00,39.0,20.0,29.96,NE,44,5.0,10.0,46,0.00,,---,0.00,VWS V13.01,2013-04-10 15:56:00,
2013-04-10 09:58:00,39.1,20.1,29.96,North,360,3.0,10.0,46,0.00,,---,0.00,VWS V13.01,2013-04-10 15:58:00,
2013-04-10 09:59:00,39.2,20.2,29.96,North,5,5.0,5.0,46,0.00,,---,0.00,VWS V13.01,2013-04-10 15:59:00,
2013-04-10 10:03:00,40.0,20.9,29.96,NNE,30,4.0,7.0,46,0.00,,---,0.00,VWS V13.01,2013-04-10 16:03:00,
2013-04-10 10:05:00,40.3,20.7,29.96,NE,53,3.0,7.0,45,0.00,,---,0.00,VWS V13.01,2013-04-10 16:05:00,
2013-04-10 10:08:00,40.3,20.7,29.96,NE,55,2.0,7.0,45,0.00,,---,0.00,VWS V13.01,2013-04-10 16:08:00,
2013-04-10 10:10:00,40.2,20.6,29.96,NE,55,5.0,7.0,45,0.00,,---,0.00,VWS V13.01,2013-04-10 16:10:00,
2013-04-10 10:12:00,40.0,20.4,29.97,NE,55,0.0,9.0,45,0.00,,---,0.00,VWS V13.01,2013-04-10 16:12:00,
2013-04-10 10:13:00,40.0,20.9,29.97,NE,55,3.0,9.0,46,0.00,,---,0.00,VWS V13.01,2013-04-10 16:13:00,
2013-04-10 10:14:00,39.9,20.8,29.96,NE,54,4.0,9.0,46,0.00,,---,0.00,VWS V13.01,2013-04-10 16:14:00,
2013-04-10 10:17:00,39.8,20.7,29.96,ENE,75,6.0,9.0,46,0.00,,---,0.00,VWS V13.01,2013-04-10 16:17:00,
2013-04-10 10:18:00,39.7,20.6,29.97,ENE,65,5.0,9.0,46,0.00,,---,0.00,VWS V13.01,2013-04-10 16:18:00,
2013-04-10 10:20:00,39.6,21.0,29.96,NNE,27,5.0,10.0,47,0.00,,---,0.00,VWS V13.01,2013-04-10 16:20:00,
2013-04-10 10:21:00,39.6,21.0,29.96,NE,51,3.0,10.0,47,0.00,,---,0.00,VWS V13.01,2013-04-10 16:21:00,
2013-04-10 10:22:00,39.5,21.0,29.96,NE,52,5.0,10.0,47,0.00,,---,0.00,VWS V13.01,2013-04-10 16:22:00,
2013-04-10 10:25:00,39.3,20.8,29.97,NE,51,4.0,10.0,47,0.00,,---,0.00,VWS V13.01,2013-04-10 16:25:00,
2013-04-10 10:26:00,39.3,20.8,29.97,NE,51,2.0,10.0,47,0.00,,---,0.00,VWS V13.01,2013-04-10 16:26:00,
2013-04-10 10:28:00,39.6,21.5,29.97,NE,51,3.0,10.0,48,0.00,,---,0.00,VWS V13.01,2013-04-10 16:28:00,
2013-04-10 10:29:00,39.8,21.7,29.97,NE,51,3.0,10.0,48,0.00,,---,0.00,VWS V13.01,2013-04-10 16:29:00,
2013-04-10 10:34:00,40.5,21.4,29.96,NW,318,5.0,8.0,46,0.00,,---,0.00,VWS V13.01,2013-04-10 16:34:00,
2013-04-10 10:35:00,40.7,21.5,29.95,NW,318,4.0,8.0,46,0.00,,---,0.00,VWS V13.01,2013-04-10 16:35:00,
2013-04-10 10:37:00,41.1,21.4,29.95,NW,311,7.0,11.0,45,0.00,,---,0.00,VWS V13.01,2013-04-10 16:37:00,
2013-04-10 10:38:00,41.2,21.5,29.95,NNW,331,11.0,11.0,45,0.00,,---,0.00,VWS V13.01,2013-04-10 16:38:00,
2013-04-10 10:41:00,41.1,21.4,29.95,NW,326,6.0,11.0,45,0.00,,---,0.00,VWS V13.01,2013-04-10 16:41:00,
2013-04-10 10:42:00,41.2,22.0,29.95,NW,321,5.0,11.0,46,0.00,,---,0.00,VWS V13.01,2013-04-10 16:42:00,
2013-04-10 10:44:00,41.3,21.6,29.95,WNW,294,3.0,11.0,45,0.00,,---,0.00,VWS V13.01,2013-04-10 16:44:00,
2013-04-10 10:45:00,41.2,21.5,29.95,WNW,298,5.0,6.0,45,0.00,,---,0.00,VWS V13.01,2013-04-10 16:45:00,
2013-04-10 10:47:00,41.1,21.4,29.95,NW,325,4.0,12.0,45,0.00,,---,0.00,VWS V13.01,2013-04-10 16:47:00,
2013-04-10 10:48:00,41.1,21.9,29.95,NW,325,4.0,12.0,46,0.00,,---,0.00,VWS V13.01,2013-04-10 16:48:00,
2013-04-10 10:49:00,41.1,21.9,29.95,NW,325,4.0,12.0,46,0.00,,---,0.00,VWS V13.01,2013-04-10 16:49:00,
2013-04-10 10:53:00,41.8,22.0,29.95,NW,326,1.0,12.0,45,0.00,,---,0.00,VWS V13.01,2013-04-10 16:53:00,
2013-04-10 10:54:00,41.9,22.1,29.95,NW,326,1.0,12.0,45,0.00,,---,0.00,VWS V13.01,2013-04-10 16:54:00,
2013-04-10 10:58:00,42.2,21.9,29.95,NW,311,7.0,12.0,44,0.00,,---,0.00,VWS V13.01,2013-04-10 16:58:00,
2013-04-10 10:59:00,42.2,21.9,29.95,NW,324,9.0,12.0,44,0.00,,---,0.00,VWS V13.01,2013-04-10 16:59:00,
2013-04-10 11:03:00,41.8,22.0,29.96,NW,323,2.0,7.0,45,0.00,,---,0.00,VWS V13.01,2013-04-10 17:03:00,
2013-04-10 11:04:00,41.9,22.1,29.96,North,11,6.0,7.0,45,0.00,,---,0.00,VWS V13.01,2013-04-10 17:04:00,
2013-04-10 11:08:00,42.2,21.9,29.96,North,350,5.0,12.0,44,0.00,,---,0.00,VWS V13.01,2013-04-10 17:08:00,
2013-04-10 11:09:00,42.3,22.0,29.96,NNW,348,6.0,12.0,44,0.00,,---,0.00,VWS V13.01,2013-04-10 17:09:00,
2013-04-10 11:10:00,42.3,22.0,29.96,NW,314,7.0,12.0,44,0.00,,---,0.00,VWS V13.01,2013-04-10 17:10:00,
2013-04-10 11:14:00,42.5,22.1,29.96,NNW,348,6.0,12.0,44,0.00,,---,0.00,VWS V13.01,2013-04-10 17:14:00,
2013-04-10 11:16:00,42.5,21.6,29.96,NW,326,11.0,12.0,43,0.00,,---,0.00,VWS V13.01,2013-04-10 17:16:00,
2013-04-10 11:17:00,42.4,22.0,29.96,NW,325,9.0,12.0,44,0.00,,---,0.00,VWS V13.01,2013-04-10 17:17:00,
2013-04-10 11:22:00,42.6,22.2,29.96,NE,36,4.0,12.0,44,0.00,,---,0.00,VWS V13.01,2013-04-10 17:22:00,
2013-04-10 11:23:00,42.8,22.4,29.96,NE,36,3.0,12.0,44,0.00,,---,0.00,VWS V13.01,2013-04-10 17:23:00,
2013-04-10 11:24:00,43.0,22.6,29.96,NE,36,3.0,12.0,44,0.00,,---,0.00,VWS V13.01,2013-04-10 17:24:00,
2013-04-10 11:27:00,43.6,22.6,29.94,NE,37,0.0,12.0,43,0.00,,---,0.00,VWS V13.01,2013-04-10 17:27:00,
2013-04-10 11:28:00,43.9,22.9,29.94,NE,37,1.0,12.0,43,0.00,,---,0.00,VWS V13.01,2013-04-10 17:28:00,
2013-04-10 11:29:00,44.1,23.0,29.94,NE,37,3.0,12.0,43,0.00,,---,0.00,VWS V13.01,2013-04-10 17:29:00,
2013-04-10 11:32:00,44.3,23.2,29.94,WSW,254,5.0,10.0,43,0.00,,---,0.00,VWS V13.01,2013-04-10 17:32:00,
2013-04-10 11:33:00,44.2,22.6,29.94,WSW,256,5.0,10.0,42,0.00,,---,0.00,VWS V13.01,2013-04-10 17:33:00,
2013-04-10 11:35:00,44.0,22.4,29.94,WSW,256,1.0,10.0,42,0.00,,---,0.00,VWS V13.01,2013-04-10 17:35:00,
2013-04-10 11:38:00,44.1,23.0,29.94,WSW,256,1.0,10.0,43,0.00,,---,0.00,VWS V13.01,2013-04-10 17:38:00,
2013-04-10 11:39:00,44.3,23.2,29.94,WSW,256,6.0,10.0,43,0.00,,---,0.00,VWS V13.01,2013-04-10 17:39:00,
2013-04-10 11:43:00,44.6,22.9,29.94,SW,222,4.0,10.0,42,0.00,,---,0.00,VWS V13.01,2013-04-10 17:43:00,
2013-04-10 11:44:00,44.6,22.9,29.94,SW,222,5.0,10.0,42,0.00,,---,0.00,VWS V13.01,2013-04-10 17:44:00,
2013-04-10 11:49:00,44.9,22.6,29.93,SW,218,4.0,9.0,41,0.00,,---,0.00,VWS V13.01,2013-04-10 17:49:00,
2013-04-10 11:50:00,44.9,23.2,29.93,SW,219,4.0,9.0,42,0.00,,---,0.00,VWS V13.01,2013-04-10 17:50:00,
2013-04-10 11:52:00,44.8,23.1,29.93,WSW,248,9.0,12.0,42,0.00,,---,0.00,VWS V13.01,2013-04-10 17:52:00,
2013-04-10 11:55:00,44.2,22.6,29.93,West,263,9.0,12.0,42,0.00,,---,0.00,VWS V13.01,2013-04-10 17:55:00,
2013-04-10 11:56:00,44.0,22.4,29.93,West,267,5.0,12.0,42,0.00,,---,0.00,VWS V13.01,2013-04-10 17:56:00,
2013-04-10 11:57:00,43.9,22.9,29.93,NW,307,5.0,12.0,43,0.00,,---,0.00,VWS V13.01,2013-04-10 17:57:00,
2013-04-10 11:59:00,44.1,23.0,29.93,West,272,4.0,12.0,43,0.00,,---,0.00,VWS V13.01,2013-04-10 17:59:00,
2013-04-10 12:02:00,44.1,23.0,29.93,West,269,5.0,11.0,43,0.00,,---,0.00,VWS V13.01,2013-04-10 18:02:00,
2013-04-10 12:04:00,44.0,23.0,29.93,West,275,6.0,11.0,43,0.00,,---,0.00,VWS V13.01,2013-04-10 18:04:00,
2013-04-10 12:07:00,44.1,23.0,29.93,West,281,7.0,11.0,43,0.00,,---,0.00,VWS V13.01,2013-04-10 18:07:00,
2013-04-10 12:10:00,44.3,22.7,29.93,WSW,242,5.0,13.0,42,0.00,,---,0.00,VWS V13.01,2013-04-10 18:10:00,
2013-04-10 12:13:00,44.4,22.8,29.93,WSW,242,4.0,13.0,42,0.00,,---,0.00,VWS V13.01,2013-04-10 18:13:00,
2013-04-10 12:14:00,44.4,22.8,29.93,WSW,242,2.0,13.0,42,0.00,,---,0.00,VWS V13.01,2013-04-10 18:14:00,
2013-04-10 12:16:00,44.3,22.7,29.93,WSW,241,0.0,3.0,42,0.00,,---,0.00,VWS V13.01,2013-04-10 18:16:00,
2013-04-10 12:19:00,44.4,22.8,29.92,SW,228,1.0,5.0,42,0.00,,---,0.00,VWS V13.01,2013-04-10 18:19:00,
2013-04-10 12:21:00,44.5,23.4,29.93,SW,226,1.0,5.0,43,0.00,,---,0.00,VWS V13.01,2013-04-10 18:21:00,
2013-04-10 12:24:00,44.2,22.6,29.93,SSE,156,0.0,9.0,42,0.00,,---,0.00,VWS V13.01,2013-04-10 18:24:00,
2013-04-10 12:25:00,44.3,22.7,29.92,SSE,156,0.0,9.0,42,0.00,,---,0.00,VWS V13.01,2013-04-10 18:25:00,
2013-04-10 12:29:00,44.2,22.6,29.92,SSE,156,0.0,9.0,42,0.00,,---,0.00,VWS V13.01,2013-04-10 18:29:00,
2013-04-10 12:30:00,44.2,22.6,29.92,SSE,156,7.0,7.0,42,0.00,,---,0.00,VWS V13.01,2013-04-10 18:30:00,
2013-04-10 12:31:00,44.2,22.6,29.92,ESE,105,7.0,7.0,42,0.00,,---,0.00,VWS V13.01,2013-04-10 18:31:00,
2013-04-10 12:33:00,44.0,22.4,29.92,ESE,123,3.0,10.0,42,0.00,,---,0.00,VWS V13.01,2013-04-10 18:33:00,
2013-04-10 12:37:00,44.2,22.6,29.92,ESE,123,0.0,10.0,42,0.00,,---,0.00,VWS V13.01,2013-04-10 18:37:00,
2013-04-10 12:38:00,44.4,23.3,29.92,ESE,123,2.0,10.0,43,0.00,,---,0.00,VWS V13.01,2013-04-10 18:38:00,
2013-04-10 12:39:00,44.6,22.9,29.92,ESE,123,0.0,10.0,42,0.00,,---,0.00,VWS V13.01,2013-04-10 18:39:00,
2013-04-10 12:42:00,45.3,23.6,29.92,ESE,123,0.0,10.0,42,0.00,,---,0.00,VWS V13.01,2013-04-10 18:42:00,
2013-04-10 12:44:00,45.5,24.3,29.91,NNW,331,6.0,10.0,43,0.00,,---,0.00,VWS V13.01,2013-04-10 18:44:00,
2013-04-10 12:45:00,45.6,24.4,29.91,NNW,331,1.0,4.0,43,0.00,,---,0.00,VWS V13.01,2013-04-10 18:45:00,
2013-04-10 12:47:00,45.6,24.4,29.90,NW,322,5.0,11.0,43,0.00,,---,0.00,VWS V13.01,2013-04-10 18:47:00,
2013-04-10 12:52:00,44.7,24.1,29.92,NW,321,7.0,13.0,44,0.00,,---,0.00,VWS V13.01,2013-04-10 18:52:00,
2013-04-10 12:54:00,44.5,24.5,29.92,NW,326,3.0,13.0,45,0.00,,---,0.00,VWS V13.01,2013-04-10 18:54:00,
2013-04-10 12:55:00,44.5,24.5,29.92,NW,326,4.0,13.0,45,0.00,,---,0.00,VWS V13.01,2013-04-10 18:55:00,
2013-04-10 12:57:00,44.6,24.0,29.91,NW,311,7.0,13.0,44,0.00,,---,0.00,VWS V13.01,2013-04-10 18:57:00,
2013-04-10 12:59:00,44.7,24.1,29.91,NNW,336,4.0,13.0,44,0.00,,---,0.00,VWS V13.01,2013-04-10 18:59:00,
2013-04-10 13:01:00,44.8,24.2,29.92,WNW,300,1.0,8.0,44,0.00,,---,0.00,VWS V13.01,2013-04-10 19:01:00,
2013-04-10 13:03:00,45.0,24.4,29.92,NW,307,4.0,8.0,44,0.00,,---,0.00,VWS V13.01,2013-04-10 19:03:00,
2013-04-10 13:04:00,45.0,23.9,29.92,NW,314,3.0,8.0,43,0.00,,---,0.00,VWS V13.01,2013-04-10 19:04:00,
2013-04-10 13:08:00,45.0,24.4,29.92,North,355,1.0,8.0,44,0.00,,---,0.00,VWS V13.01,2013-04-10 19:08:00,
2013-04-10 13:10:00,45.0,24.4,29.92,NNW,329,9.0,13.0,44,0.00,,---,0.00,VWS V13.01,2013-04-10 19:10:00,
2013-04-10 13:11:00,45.0,24.4,29.92,West,277,11.0,14.0,44,0.00,,---,0.00,VWS V13.01,2013-04-10 19:11:00,
2013-04-10 13:14:00,44.7,24.7,29.92,West,272,10.0,16.0,45,0.00,,---,0.00,VWS V13.01,2013-04-10 19:14:00,
2013-04-10 13:16:00,44.3,24.3,29.92,NNW,329,9.0,15.0,45,0.00,,---,0.00,VWS V13.01,2013-04-10 19:16:00,
2013-04-10 13:17:00,44.2,24.8,29.92,NW,326,6.0,15.0,46,0.00,,---,0.00,VWS V13.01,2013-04-10 19:17:00,
2013-04-10 13:19:00,44.1,24.7,29.92,NW,309,8.0,15.0,46,0.00,,---,0.00,VWS V13.01,2013-04-10 19:19:00,
2013-04-10 13:22:00,43.9,25.5,29.92,NW,307,10.0,15.0,48,0.00,,---,0.00,VWS V13.01,2013-04-10 19:22:00,
2013-04-10 13:23:00,43.8,24.4,29.93,NW,304,7.0,15.0,46,0.00,,---,0.00,VWS V13.01,2013-04-10 19:23:00,
2013-04-10 13:24:00,43.9,24.5,29.93,NW,304,11.0,15.0,46,0.00,,---,0.00,VWS V13.01,2013-04-10 19:24:00,
2013-04-10 13:26:00,43.9,24.5,29.93,NW,310,8.0,15.0,46,0.00,,---,0.00,VWS V13.01,2013-04-10 19:26:00,
2013-04-10 13:29:00,43.7,24.3,29.93,NW,319,7.0,15.0,46,0.00,,---,0.00,VWS V13.01,2013-04-10 19:29:00,
2013-04-10 13:30:00,43.7,24.3,29.93,WNW,286,11.0,12.0,46,0.00,,---,0.00,VWS V13.01,2013-04-10 19:30:00,
2013-04-10 13:33:00,43.5,24.6,29.92,NW,306,7.0,12.0,47,0.00,,---,0.00,VWS V13.01,2013-04-10 19:33:00,
2013-04-10 13:35:00,43.6,24.7,29.93,NW,323,6.0,12.0,47,0.00,,---,0.00,VWS V13.01,2013-04-10 19:35:00,
2013-04-10 13:37:00,43.6,24.7,29.92,NW,318,10.0,15.0,47,0.00,,---,0.00,VWS V13.01,2013-04-10 19:37:00,
2013-04-10 13:38:00,43.5,24.6,29.92,NW,317,7.0,15.0,47,0.00,,---,0.00,VWS V13.01,2013-04-10 19:38:00,
2013-04-10 13:40:00,43.2,24.9,29.93,NW,311,4.0,15.0,48,0.00,,---,0.00,VWS V13.01,2013-04-10 19:40:00,
2013-04-10 13:42:00,43.3,24.9,29.93,West,263,6.0,15.0,48,0.00,,---,0.00,VWS V13.01,2013-04-10 19:42:00,
2013-04-10 13:44:00,43.5,25.1,29.93,NW,313,7.0,15.0,48,0.00,,---,0.00,VWS V13.01,2013-04-10 19:44:00,
2013-04-10 13:47:00,43.6,25.2,29.92,WNW,301,10.0,11.0,48,0.00,,---,0.00,VWS V13.01,2013-04-10 19:47:00,
2013-04-10 13:49:00,43.5,25.1,29.92,NW,305,7.0,11.0,48,0.00,,---,0.00,VWS V13.01,2013-04-10 19:49:00,
2013-04-10 13:52:00,43.3,24.9,29.93,WNW,284,3.0,11.0,48,0.00,,---,0.00,VWS V13.01,2013-04-10 19:52:00,
2013-04-10 13:53:00,43.4,25.5,29.93,WNW,283,4.0,11.0,49,0.00,,---,0.00,VWS V13.01,2013-04-10 19:53:00,
2013-04-10 13:56:00,43.5,25.1,29.92,NW,310,3.0,11.0,48,0.00,,---,0.00,VWS V13.01,2013-04-10 19:56:00,
2013-04-10 13:59:00,43.6,25.2,29.92,NW,324,9.0,13.0,48,0.00,,---,0.00,VWS V13.01,2013-04-10 19:59:00,
2013-04-10 14:01:00,43.6,25.2,29.91,NW,319,11.0,11.0,48,0.00,,---,0.00,VWS V13.01,2013-04-10 20:01:00,
2013-04-10 14:03:00,43.6,25.2,29.91,West,272,4.0,11.0,48,0.00,,---,0.00,VWS V13.01,2013-04-10 20:03:00,
2013-04-10 14:04:00,43.7,25.3,29.91,West,277,10.0,11.0,48,0.00,,---,0.00,VWS V13.01,2013-04-10 20:04:00,
2013-04-10 14:08:00,43.6,25.2,29.91,SW,234,2.0,12.0,48,0.00,,---,0.00,VWS V13.01,2013-04-10 20:08:00,
2013-04-10 14:09:00,43.7,25.3,29.91,SW,234,3.0,12.0,48,0.00,,---,0.00,VWS V13.01,2013-04-10 20:09:00,
2013-04-10 14:11:00,43.8,25.4,29.91,West,273,6.0,12.0,48,0.00,,---,0.00,VWS V13.01,2013-04-10 20:11:00,
2013-04-10 14:14:00,44.1,25.7,29.91,West,281,6.0,12.0,48,0.00,,---,0.00,VWS V13.01,2013-04-10 20:14:00,
2013-04-10 14:16:00,44.1,25.7,29.91,WSW,238,8.0,11.0,48,0.00,,---,0.00,VWS V13.01,2013-04-10 20:16:00,
2013-04-10 14:18:00,44.0,25.1,29.91,SW,225,5.0,11.0,47,0.00,,---,0.00,VWS V13.01,2013-04-10 20:18:00,
2013-04-10 14:21:00,44.1,25.7,29.91,West,275,3.0,11.0,48,0.00,,---,0.00,VWS V13.01,2013-04-10 20:21:00,
2013-04-10 14:24:00,44.2,25.8,29.91,NW,325,4.0,11.0,48,0.00,,---,0.00,VWS V13.01,2013-04-10 20:24:00,
2013-04-10 14:26:00,44.2,25.3,29.91,WNW,303,9.0,12.0,47,0.00,,---,0.00,VWS V13.01,2013-04-10 20:26:00,
2013-04-10 14:27:00,44.2,25.8,29.91,West,269,10.0,12.0,48,0.00,,---,0.00,VWS V13.01,2013-04-10 20:27:00,
2013-04-10 14:28:00,44.2,25.8,29.91,West,277,5.0,12.0,48,0.00,,---,0.00,VWS V13.01,2013-04-10 20:28:00,
2013-04-10 14:30:00,44.1,25.7,29.91,NW,323,5.0,12.0,48,0.00,,---,0.00,VWS V13.01,2013-04-10 20:30:00,
2013-04-10 14:31:00,44.0,25.6,29.91,NW,319,8.0,12.0,48,0.00,,---,0.00,VWS V13.01,2013-04-10 20:31:00,
2013-04-10 14:36:00,43.8,25.4,29.91,WNW,296,7.0,18.0,48,0.00,,---,0.00,VWS V13.01,2013-04-10 20:36:00,
2013-04-10 14:37:00,43.7,25.3,29.91,NW,309,7.0,18.0,48,0.00,,---,0.00,VWS V13.01,2013-04-10 20:37:00,
2013-04-10 14:41:00,43.8,25.4,29.91,NNW,331,13.0,19.0,48,0.00,,---,0.00,VWS V13.01,2013-04-10 20:41:00,
2013-04-10 14:42:00,43.7,25.3,29.91,NNW,333,10.0,19.0,48,0.00,,---,0.00,VWS V13.01,2013-04-10 20:42:00,
2013-04-10 14:43:00,43.6,25.2,29.91,NW,315,7.0,19.0,48,0.00,,---,0.00,VWS V13.01,2013-04-10 20:43:00,
2013-04-10 14:44:00,43.5,25.1,29.91,NW,315,15.0,19.0,48,0.00,,---,0.00,VWS V13.01,2013-04-10 20:44:00,
2013-04-10 14:48:00,43.1,24.8,29.92,NW,304,10.0,20.0,48,0.00,,---,0.00,VWS V13.01,2013-04-10 20:48:00,
2013-04-10 14:49:00,43.2,25.4,29.92,NNW,331,15.0,20.0,49,0.00,,---,0.00,VWS V13.01,2013-04-10 20:49:00,
2013-04-10 14:52:00,43.3,25.4,29.92,NNW,331,11.0,20.0,49,0.00,,---,0.00,VWS V13.01,2013-04-10 20:52:00,
2013-04-10 14:54:00,43.4,25.5,29.92,West,261,9.0,20.0,49,0.00,,---,0.00,VWS V13.01,2013-04-10 20:54:00,
2013-04-10 14:58:00,43.3,24.9,29.92,NW,326,16.0,23.0,48,0.00,,---,0.00,VWS V13.01,2013-04-10 20:58:00,
2013-04-10 14:59:00,43.1,25.3,29.92,NNW,344,9.0,23.0,49,0.00,,---,0.00,VWS V13.01,2013-04-10 20:59:00,
2013-04-10 15:00:00,42.9,25.1,29.92,WNW,303,11.0,15.0,49,0.00,,---,0.00,VWS V13.01,2013-04-10 21:00:00,
2013-04-10 15:03:00,42.7,25.4,29.92,WNW,288,10.0,20.0,50,0.00,,---,0.00,VWS V13.01,2013-04-10 21:03:00,
2013-04-10 15:06:00,43.3,25.9,29.92,NW,308,7.0,22.0,50,0.00,,---,0.00,VWS V13.01,2013-04-10 21:06:00,
2013-04-10 15:09:00,43.9,26.0,29.91,NW,319,12.0,22.0,49,0.00,,---,0.00,VWS V13.01,2013-04-10 21:09:00,
2013-04-10 15:11:00,43.8,25.4,29.91,NNW,344,12.0,22.0,48,0.00,,---,0.00,VWS V13.01,2013-04-10 21:11:00,
2013-04-10 15:12:00,43.6,25.2,29.91,NW,313,5.0,22.0,48,0.00,,---,0.00,VWS V13.01,2013-04-10 21:12:00,
2013-04-10 15:14:00,43.5,25.1,29.91,NW,322,16.0,23.0,48,0.00,,---,0.00,VWS V13.01,2013-04-10 21:14:00,
2013-04-10 15:15:00,43.4,25.0,29.91,NNW,336,15.0,18.0,48,0.00,,---,0.00,VWS V13.01,2013-04-10 21:15:00,
2013-04-10 15:17:00,43.3,24.9,29.92,NW,323,20.0,20.0,48,0.00,,---,0.00,VWS V13.01,2013-04-10 21:17:00,
2013-04-10 15:20:00,43.0,25.2,29.92,NNW,340,7.0,22.0,49,0.00,,---,0.00,VWS V13.01,2013-04-10 21:20:00,
2013-04-10 15:23:00,43.3,24.9,29.92,NNW,342,12.0,22.0,48,0.00,,---,0.00,VWS V13.01,2013-04-10 21:23:00,
2013-04-10 15:24:00,43.3,24.9,29.92,NW,322,6.0,22.0,48,0.00,,---,0.00,VWS V13.01,2013-04-10 21:24:00,
2013-04-10 15:25:00,43.4,25.0,29.91,WNW,292,11.0,22.0,48,0.00,,---,0.00,VWS V13.01,2013-04-10 21:25:00,
2013-04-10 15:26:00,43.4,25.0,29.92,NNW,341,10.0,22.0,48,0.00,,---,0.00,VWS V13.01,2013-04-10 21:26:00,
2013-04-10 15:28:00,43.7,25.3,29.91,WNW,294,21.0,22.0,48,0.00,,---,0.00,VWS V13.01,2013-04-10 21:28:00,
2013-04-10 15:34:00,43.5,24.6,29.91,NNW,332,13.0,21.0,47,0.00,,---,0.00,VWS V13.01,2013-04-10 21:34:00,
2013-04-10 15:35:00,43.3,24.4,29.91,NNW,334,13.0,21.0,47,0.00,,---,0.00,VWS V13.01,2013-04-10 21:35:00,
2013-04-10 15:37:00,43.2,24.4,29.92,West,279,9.0,21.0,47,0.00,,---,0.00,VWS V13.01,2013-04-10 21:37:00,
2013-04-10 15:40:00,43.0,24.2,29.92,NW,321,9.0,21.0,47,0.00,,---,0.00,VWS V13.01,2013-04-10 21:40:00,
2013-04-10 15:42:00,42.9,24.1,29.92,WNW,289,13.0,21.0,47,0.00,,---,0.00,VWS V13.01,2013-04-10 21:42:00,
2013-04-10 15:44:00,43.0,24.2,29.92,WNW,298,10.0,21.0,47,0.00,,---,0.00,VWS V13.01,2013-04-10 21:44:00,
2013-04-10 15:48:00,42.7,23.9,29.92,WNW,302,20.0,24.0,47,0.00,,---,0.00,VWS V13.01,2013-04-10 21:48:00,
2013-04-10 15:50:00,42.5,23.7,29.92,NNW,331,12.0,24.0,47,0.00,,---,0.00,VWS V13.01,2013-04-10 21:50:00,
2013-04-10 15:52:00,42.6,23.8,29.92,NW,325,12.0,24.0,47,0.00,,---,0.00,VWS V13.01,2013-04-10 21:52:00,
2013-04-10 15:53:00,42.6,23.8,29.92,WNW,302,7.0,24.0,47,0.00,,---,0.00,VWS V13.01,2013-04-10 21:53:00,
2013-04-10 15:55:00,42.8,24.0,29.92,WNW,303,10.0,24.0,47,0.00,,---,0.00,VWS V13.01,2013-04-10 21:55:00,
2013-04-10 15:56:00,42.7,23.4,29.92,WNW,301,15.0,24.0,46,0.00,,---,0.00,VWS V13.01,2013-04-10 21:56:00,
2013-04-10 15:58:00,42.6,23.3,29.92,WNW,289,14.0,24.0,46,0.00,,---,0.00,VWS V13.01,2013-04-10 21:58:00,
2013-04-10 16:01:00,42.4,23.1,29.92,WNW,296,14.0,23.0,46,0.00,,---,0.00,VWS V13.01,2013-04-10 22:01:00,
2013-04-10 16:02:00,42.4,23.1,29.93,WNW,303,16.0,23.0,46,0.00,,---,0.00,VWS V13.01,2013-04-10 22:02:00,
2013-04-10 16:06:00,42.1,22.8,29.93,West,273,10.0,23.0,46,0.00,,---,0.00,VWS V13.01,2013-04-10 22:06:00,
2013-04-10 16:07:00,42.1,22.8,29.93,NW,304,19.0,23.0,46,0.00,,---,0.00,VWS V13.01,2013-04-10 22:07:00,
2013-04-10 16:08:00,42.0,22.7,29.93,West,281,12.0,23.0,46,0.00,,---,0.00,VWS V13.01,2013-04-10 22:08:00,
2013-04-10 16:10:00,42.1,22.8,29.93,NW,318,9.0,23.0,46,0.00,,---,0.00,VWS V13.01,2013-04-10 22:10:00,
2013-04-10 16:13:00,42.3,23.0,29.93,West,267,11.0,23.0,46,0.00,,---,0.00,VWS V13.01,2013-04-10 22:13:00,
2013-04-10 16:17:00,42.3,23.0,29.93,NW,306,15.0,19.0,46,0.00,,---,0.00,VWS V13.01,2013-04-10 22:17:00,
2013-04-10 16:18:00,42.3,23.0,29.93,NW,314,16.0,19.0,46,0.00,,---,0.00,VWS V13.01,2013-04-10 22:18:00,
2013-04-10 16:21:00,42.0,22.7,29.93,NW,306,13.0,24.0,46,0.00,,---,0.00,VWS V13.01,2013-04-10 22:21:00,
2013-04-10 16:24:00,42.2,22.9,29.93,NNW,338,9.0,24.0,46,0.00,,---,0.00,VWS V13.01,2013-04-10 22:24:00,
2013-04-10 16:25:00,42.4,23.1,29.93,NW,313,8.0,24.0,46,0.00,,---,0.00,VWS V13.01,2013-04-10 22:25:00,
2013-04-10 16:28:00,42.6,22.8,29.92,NNW,331,13.0,24.0,45,0.00,,---,0.00,VWS V13.01,2013-04-10 22:28:00,
2013-04-10 16:29:00,42.4,23.1,29.92,NNW,340,10.0,24.0,46,0.00,,---,0.00,VWS V13.01,2013-04-10 22:29:00,
2013-04-10 16:30:00,42.3,23.0,29.93,NNW,333,8.0,13.0,46,0.00,,---,0.00,VWS V13.01,2013-04-10 22:30:00,
2013-04-10 16:31:00,42.2,22.9,29.93,NW,323,5.0,13.0,46,0.00,,---,0.00,VWS V13.01,2013-04-10 22:31:00,
2013-04-10 16:35:00,42.1,22.8,29.93,NNW,334,15.0,20.0,46,0.00,,---,0.00,VWS V13.01,2013-04-10 22:35:00,
2013-04-10 16:37:00,42.0,22.7,29.93,NNW,336,11.0,20.0,46,0.00,,---,0.00,VWS V13.01,2013-04-10 22:37:00,
2013-04-10 16:40:00,42.0,22.2,29.93,WNW,302,16.0,22.0,45,0.00,,---,0.00,VWS V13.01,2013-04-10 22:40:00,
2013-04-10 16:42:00,42.1,22.3,29.93,NW,313,6.0,22.0,45,0.00,,---,0.00,VWS V13.01,2013-04-10 22:42:00,
2013-04-10 16:44:00,42.2,22.4,29.93,NNW,344,17.0,22.0,45,0.00,,---,0.00,VWS V13.01,2013-04-10 22:44:00,
2013-04-10 16:47:00,42.2,21.9,29.93,West,276,10.0,19.0,44,0.00,,---,0.00,VWS V13.01,2013-04-10 22:47:00,
2013-04-10 16:52:00,42.8,21.9,29.92,NNW,327,20.0,20.0,43,0.00,,---,0.00,VWS V13.01,2013-04-10 22:52:00,
2013-04-10 16:53:00,42.7,21.8,29.92,NNW,331,11.0,22.0,43,0.00,,---,0.00,VWS V13.01,2013-04-10 22:53:00,
2013-04-10 16:54:00,42.7,21.8,29.92,NNW,339,18.0,22.0,43,0.00,,---,0.00,VWS V13.01,2013-04-10 22:54:00,
2013-04-10 16:55:00,42.7,21.8,29.92,WNW,300,14.0,22.0,43,0.00,,---,0.00,VWS V13.01,2013-04-10 22:55:00,
2013-04-10 16:58:00,42.6,21.7,29.92,NNW,333,15.0,23.0,43,0.00,,---,0.00,VWS V13.01,2013-04-10 22:58:00,
2013-04-10 16:59:00,42.6,21.7,29.92,NW,325,13.0,23.0,43,0.00,,---,0.00,VWS V13.01,2013-04-10 22:59:00,
2013-04-10 17:01:00,42.8,21.9,29.93,NNW,332,13.0,20.0,43,0.00,,---,0.00,VWS V13.01,2013-04-10 23:01:00,
2013-04-10 17:04:00,42.7,21.2,29.93,NNW,333,10.0,23.0,42,0.00,,---,0.00,VWS V13.01,2013-04-10 23:04:00,
2013-04-10 17:06:00,42.7,21.8,29.93,NW,307,16.0,23.0,43,0.00,,---,0.00,VWS V13.01,2013-04-10 23:06:00,
2013-04-10 17:07:00,42.7,21.2,29.93,WNW,297,18.0,23.0,42,0.00,,---,0.00,VWS V13.01,2013-04-10 23:07:00,
2013-04-10 17:08:00,42.7,21.2,29.93,WNW,297,4.0,23.0,42,0.00,,---,0.00,VWS V13.01,2013-04-10 23:08:00,
2013-04-10 17:09:00,42.6,21.1,29.93,NW,318,12.0,23.0,42,0.00,,---,0.00,VWS V13.01,2013-04-10 23:09:00,
2013-04-10 17:13:00,42.5,21.0,29.93,NW,309,8.0,23.0,42,0.00,,---,0.00,VWS V13.01,2013-04-10 23:13:00,
2013-04-10 17:14:00,42.5,21.0,29.93,WNW,292,20.0,23.0,42,0.00,,---,0.00,VWS V13.01,2013-04-10 23:14:00,
2013-04-10 17:16:00,42.4,21.0,29.94,NW,323,10.0,17.0,42,0.00,,---,0.00,VWS V13.01,2013-04-10 23:16:00,
2013-04-10 17:21:00,42.4,21.0,29.94,NW,310,12.0,20.0,42,0.00,,---,0.00,VWS V13.01,2013-04-10 23:21:00,
2013-04-10 17:22:00,42.6,21.1,29.93,West,274,10.0,20.0,42,0.00,,---,0.00,VWS V13.01,2013-04-10 23:22:00,
2013-04-10 17:27:00,43.1,21.6,29.93,WNW,302,13.0,22.0,42,0.00,,---,0.00,VWS V13.01,2013-04-10 23:27:00,
2013-04-10 17:28:00,43.2,21.1,29.93,WNW,291,11.0,25.0,41,0.00,,---,0.00,VWS V13.01,2013-04-10 23:28:00,
2013-04-10 17:29:00,43.3,21.2,29.93,NW,320,17.0,25.0,41,0.00,,---,0.00,VWS V13.01,2013-04-10 23:29:00,
2013-04-10 17:32:00,43.4,21.3,29.93,NNW,333,13.0,20.0,41,0.00,,---,0.00,VWS V13.01,2013-04-10 23:32:00,
2013-04-10 17:37:00,43.6,21.5,29.93,NW,317,15.0,23.0,41,0.00,,---,0.00,VWS V13.01,2013-04-10 23:37:00,
2013-04-10 17:38:00,43.6,21.5,29.93,WNW,303,7.0,23.0,41,0.00,,---,0.00,VWS V13.01,2013-04-10 23:38:00,
2013-04-10 17:39:00,43.6,21.5,29.93,NW,304,5.0,23.0,41,0.00,,---,0.00,VWS V13.01,2013-04-10 23:39:00,
2013-04-10 17:40:00,43.6,21.5,29.93,NNW,336,13.0,23.0,41,0.00,,---,0.00,VWS V13.01,2013-04-10 23:40:00,
2013-04-10 17:44:00,43.6,20.9,29.93,NNW,334,9.0,23.0,40,0.00,,---,0.00,VWS V13.01,2013-04-10 23:44:00,
2013-04-10 17:45:00,43.7,21.0,29.93,NW,305,16.0,19.0,40,0.00,,---,0.00,VWS V13.01,2013-04-10 23:45:00,
2013-04-10 17:46:00,43.6,20.9,29.93,WNW,289,14.0,19.0,40,0.00,,---,0.00,VWS V13.01,2013-04-10 23:46:00,
2013-04-10 17:49:00,43.4,20.7,29.93,WNW,291,16.0,26.0,40,0.00,,---,0.00,VWS V13.01,2013-04-10 23:49:00,
2013-04-10 17:50:00,43.4,21.3,29.93,WNW,294,16.0,26.0,41,0.00,,---,0.00,VWS V13.01,2013-04-10 23:50:00,
2013-04-10 17:54:00,43.1,21.0,29.94,WNW,286,8.0,26.0,41,0.00,,---,0.00,VWS V13.01,2013-04-10 23:54:00,
2013-04-10 17:56:00,42.9,20.3,29.93,NNW,336,5.0,26.0,40,0.00,,---,0.00,VWS V13.01,2013-04-10 23:56:00,
2013-04-10 17:59:00,42.6,20.6,29.93,NW,319,18.0,26.0,41,0.00,,---,0.00,VWS V13.01,2013-04-10 23:59:00,
2013-04-10 18:01:00,42.4,20.4,29.93,NNW,328,15.0,23.0,41,0.00,,---,0.00,VWS V13.01,2013-04-11 00:01:00,
2013-04-10 18:04:00,42.4,21.0,29.95,NW,320,10.0,23.0,42,0.00,,---,0.00,VWS V13.01,2013-04-11 00:04:00,
2013-04-10 18:05:00,42.4,21.0,29.94,NNW,346,17.0,23.0,42,0.00,,---,0.00,VWS V13.01,2013-04-11 00:05:00,
2013-04-10 18:08:00,42.4,20.4,29.95,NNW,327,17.0,23.0,41,0.00,,---,0.00,VWS V13.01,2013-04-11 00:08:00,
2013-04-10 18:09:00,42.4,20.4,29.94,WNW,286,14.0,23.0,41,0.00,,---,0.00,VWS V13.01,2013-04-11 00:09:00,
2013-04-10 18:14:00,42.7,20.7,29.93,WNW,302,15.0,23.0,41,0.00,,---,0.00,VWS V13.01,2013-04-11 00:14:00,
2013-04-10 18:17:00,42.8,20.8,29.94,NNW,331,16.0,19.0,41,0.00,,---,0.00,VWS V13.01,2013-04-11 00:17:00,
2013-04-10 18:19:00,42.7,20.1,29.94,NW,307,13.0,23.0,40,0.00,,---,0.00,VWS V13.01,2013-04-11 00:19:00,
2013-04-10 18:21:00,42.7,20.7,29.94,NW,307,8.0,23.0,41,0.00,,---,0.00,VWS V13.01,2013-04-11 00:21:00,
2013-04-10 18:23:00,42.7,20.7,29.94,NW,320,9.0,24.0,41,0.00,,---,0.00,VWS V13.01,2013-04-11 00:23:00,
2013-04-10 18:27:00,42.9,20.8,29.94,WNW,300,17.0,24.0,41,0.00,,---,0.00,VWS V13.01,2013-04-11 00:27:00,
2013-04-10 18:29:00,43.0,20.9,29.94,WNW,303,15.0,24.0,41,0.00,,---,0.00,VWS V13.01,2013-04-11 00:29:00,
2013-04-10 18:33:00,43.0,20.9,29.94,WNW,295,17.0,17.0,41,0.00,,---,0.00,VWS V13.01,2013-04-11 00:33:00,
2013-04-10 18:34:00,43.1,21.0,29.94,WNW,298,18.0,18.0,41,0.00,,---,0.00,VWS V13.01,2013-04-11 00:34:00,
2013-04-10 18:36:00,43.2,21.1,29.94,NW,321,12.0,18.0,41,0.00,,---,0.00,VWS V13.01,2013-04-11 00:36:00,
2013-04-10 18:39:00,43.3,21.2,29.94,WNW,289,13.0,19.0,41,0.00,,---,0.00,VWS V13.01,2013-04-11 00:39:00,
2013-04-10 18:42:00,43.2,21.1,29.94,WNW,288,14.0,19.0,41,0.00,,---,0.00,VWS V13.01,2013-04-11 00:42:00,
2013-04-10 18:44:00,43.2,21.1,29.94,WNW,297,14.0,19.0,41,0.00,,---,0.00,VWS V13.01,2013-04-11 00:44:00,
2013-04-10 18:47:00,43.1,21.0,29.94,WNW,295,8.0,19.0,41,0.00,,---,0.00,VWS V13.01,2013-04-11 00:47:00,
2013-04-10 18:51:00,43.1,21.0,29.94,WNW,284,10.0,19.0,41,0.00,,---,0.00,VWS V13.01,2013-04-11 00:51:00,
2013-04-10 18:52:00,43.1,21.0,29.95,WSW,257,13.0,19.0,41,0.00,,---,0.00,VWS V13.01,2013-04-11 00:52:00,
2013-04-10 18:54:00,43.1,21.0,29.94,WNW,287,6.0,19.0,41,0.00,,---,0.00,VWS V13.01,2013-04-11 00:54:00,
2013-04-10 18:57:00,43.1,21.0,29.94,West,264,12.0,19.0,41,0.00,,---,0.00,VWS V13.01,2013-04-11 00:57:00,
2013-04-10 18:58:00,43.1,21.0,29.94,WNW,284,5.0,19.0,41,0.00,,---,0.00,VWS V13.01,2013-04-11 00:58:00,
2013-04-10 18:59:00,43.0,20.9,29.94,WNW,297,12.0,19.0,41,0.00,,---,0.00,VWS V13.01,2013-04-11 00:59:00,
2013-04-10 19:02:00,43.0,20.9,29.94,West,265,5.0,16.0,41,0.00,,---,0.00,VWS V13.01,2013-04-11 01:02:00,
2013-04-10 19:04:00,42.9,20.8,29.94,NW,321,9.0,16.0,41,0.00,,---,0.00,VWS V13.01,2013-04-11 01:04:00,
2013-04-10 19:06:00,42.8,20.8,29.95,WNW,300,7.0,17.0,41,0.00,,---,0.00,VWS V13.01,2013-04-11 01:06:00,
2013-04-10 19:08:00,42.7,20.7,29.95,WNW,284,9.0,17.0,41,0.00,,---,0.00,VWS V13.01,2013-04-11 01:08:00,
2013-04-10 19:10:00,42.7,20.7,29.95,NW,310,7.0,17.0,41,0.00,,---,0.00,VWS V13.01,2013-04-11 01:10:00,
2013-04-10 19:13:00,42.6,20.6,29.95,NW,310,11.0,17.0,41,0.00,,---,0.00,VWS V13.01,2013-04-11 01:13:00,
2013-04-10 19:14:00,42.6,20.6,29.95,NW,309,5.0,17.0,41,0.00,,---,0.00,VWS V13.01,2013-04-11 01:14:00,
2013-04-10 19:15:00,42.6,20.6,29.95,West,276,9.0,10.0,41,0.00,,---,0.00,VWS V13.01,2013-04-11 01:15:00,
2013-04-10 19:20:00,42.4,20.4,29.96,WNW,290,11.0,17.0,41,0.00,,---,0.00,VWS V13.01,2013-04-11 01:20:00,
2013-04-10 19:22:00,42.3,20.3,29.96,NW,308,13.0,17.0,41,0.00,,---,0.00,VWS V13.01,2013-04-11 01:22:00,
2013-04-10 19:23:00,42.3,20.3,29.97,WNW,300,7.0,17.0,41,0.00,,---,0.00,VWS V13.01,2013-04-11 01:23:00,
2013-04-10 19:28:00,42.2,20.8,29.97,NW,304,6.0,17.0,42,0.00,,---,0.00,VWS V13.01,2013-04-11 01:28:00,
2013-04-10 19:29:00,42.2,20.8,29.97,West,280,10.0,17.0,42,0.00,,---,0.00,VWS V13.01,2013-04-11 01:29:00,
2013-04-10 19:32:00,42.1,20.7,29.97,West,277,9.0,14.0,42,0.00,,---,0.00,VWS V13.01,2013-04-11 01:32:00,
2013-04-10 19:35:00,42.1,20.7,29.97,West,271,4.0,14.0,42,0.00,,---,0.00,VWS V13.01,2013-04-11 01:35:00,
2013-04-10 19:37:00,42.0,20.6,29.97,NW,312,5.0,14.0,42,0.00,,---,0.00,VWS V13.01,2013-04-11 01:37:00,
2013-04-10 19:38:00,42.0,20.6,29.97,WNW,282,4.0,14.0,42,0.00,,---,0.00,VWS V13.01,2013-04-11 01:38:00,
2013-04-10 19:42:00,41.9,20.5,29.97,WNW,291,6.0,14.0,42,0.00,,---,0.00,VWS V13.01,2013-04-11 01:42:00,
2013-04-10 19:43:00,41.9,20.5,29.97,WNW,292,2.0,14.0,42,0.00,,---,0.00,VWS V13.01,2013-04-11 01:43:00,
2013-04-10 19:44:00,41.9,20.5,29.97,WNW,289,5.0,14.0,42,0.00,,---,0.00,VWS V13.01,2013-04-11 01:44:00,
2013-04-10 19:49:00,41.7,20.3,29.97,WNW,301,2.0,7.0,42,0.00,,---,0.00,VWS V13.01,2013-04-11 01:49:00,
2013-04-10 19:50:00,41.7,20.3,29.97,WNW,301,4.0,7.0,42,0.00,,---,0.00,VWS V13.01,2013-04-11 01:50:00,
2013-04-10 19:51:00,41.7,20.3,29.97,WNW,301,2.0,7.0,42,0.00,,---,0.00,VWS V13.01,2013-04-11 01:51:00,
2013-04-10 19:53:00,41.6,20.2,29.97,WNW,300,3.0,7.0,42,0.00,,---,0.00,VWS V13.01,2013-04-11 01:53:00,
2013-04-10 19:55:00,41.6,20.2,29.97,WNW,301,3.0,7.0,42,0.00,,---,0.00,VWS V13.01,2013-04-11 01:55:00,
2013-04-10 19:56:00,41.6,20.2,29.97,WNW,301,3.0,7.0,42,0.00,,---,0.00,VWS V13.01,2013-04-11 01:56:00,
2013-04-10 19:59:00,41.5,20.1,29.97,WNW,301,2.0,7.0,42,0.00,,---,0.00,VWS V13.01,2013-04-11 01:59:00,
2013-04-10 20:01:00,41.5,20.1,29.96,WNW,296,5.0,5.0,42,0.00,,---,0.00,VWS V13.01,2013-04-11 02:01:00,
2013-04-10 20:07:00,41.4,20.0,29.96,WNW,293,1.0,7.0,42,0.00,,---,0.00,VWS V13.01,2013-04-11 02:07:00,
2013-04-10 20:08:00,41.3,20.0,29.96,WNW,292,0.0,7.0,42,0.00,,---,0.00,VWS V13.01,2013-04-11 02:08:00,
2013-04-10 20:11:00,41.2,19.9,29.96,WNW,292,0.0,7.0,42,0.00,,---,0.00,VWS V13.01,2013-04-11 02:11:00,
2013-04-10 20:12:00,41.2,19.9,29.96,WNW,293,2.0,7.0,42,0.00,,---,0.00,VWS V13.01,2013-04-11 02:12:00,
2013-04-10 20:13:00,41.1,19.8,29.97,WNW,293,0.0,7.0,42,0.00,,---,0.00,VWS V13.01,2013-04-11 02:13:00,
2013-04-10 20:14:00,41.1,19.8,29.97,WNW,293,0.0,7.0,42,0.00,,---,0.00,VWS V13.01,2013-04-11 02:14:00,
2013-04-10 20:18:00,40.9,19.6,29.97,WNW,293,0.0,1.0,42,0.00,,---,0.00,VWS V13.01,2013-04-11 02:18:00,
2013-04-10 20:20:00,40.7,19.4,29.97,WNW,292,0.0,1.0,42,0.00,,---,0.00,VWS V13.01,2013-04-11 02:20:00,
2013-04-10 20:24:00,40.5,19.8,29.97,WNW,293,0.0,1.0,43,0.00,,---,0.00,VWS V13.01,2013-04-11 02:24:00,
2013-04-10 20:25:00,40.4,19.7,29.98,WNW,293,0.0,1.0,43,0.00,,---,0.00,VWS V13.01,2013-04-11 02:25:00,
2013-04-10 20:26:00,40.4,19.7,29.98,WNW,293,0.0,1.0,43,0.00,,---,0.00,VWS V13.01,2013-04-11 02:26:00,
2013-04-10 20:29:00,40.2,19.5,29.98,WNW,292,2.0,3.0,43,0.00,,---,0.00,VWS V13.01,2013-04-11 02:29:00,
2013-04-10 20:30:00,40.2,19.5,29.98,WNW,292,2.0,2.0,43,0.00,,---,0.00,VWS V13.01,2013-04-11 02:30:00,
2013-04-10 20:32:00,40.2,19.5,29.98,WNW,293,0.0,3.0,43,0.00,,---,0.00,VWS V13.01,2013-04-11 02:32:00,
2013-04-10 20:34:00,40.2,19.5,29.98,WNW,292,0.0,3.0,43,0.00,,---,0.00,VWS V13.01,2013-04-11 02:34:00,
2013-04-10 20:36:00,40.3,19.6,29.98,WNW,293,0.0,3.0,43,0.00,,---,0.00,VWS V13.01,2013-04-11 02:36:00,
2013-04-10 20:37:00,40.3,19.6,29.98,WNW,293,0.0,3.0,43,0.00,,---,0.00,VWS V13.01,2013-04-11 02:37:00,
2013-04-10 20:42:00,40.0,19.9,29.98,WNW,292,0.0,3.0,44,0.00,,---,0.00,VWS V13.01,2013-04-11 02:42:00,
2013-04-10 20:44:00,40.0,19.9,29.98,WNW,293,0.0,3.0,44,0.00,,---,0.00,VWS V13.01,2013-04-11 02:44:00,
2013-04-10 20:45:00,39.9,19.8,29.98,WNW,292,0.0,0.0,44,0.00,,---,0.00,VWS V13.01,2013-04-11 02:45:00,
2013-04-10 20:49:00,39.6,19.5,29.98,WNW,292,0.0,0.0,44,0.00,,---,0.00,VWS V13.01,2013-04-11 02:49:00,
2013-04-10 20:50:00,39.5,19.4,29.99,WNW,293,0.0,0.0,44,0.00,,---,0.00,VWS V13.01,2013-04-11 02:50:00,
2013-04-10 20:52:00,39.3,19.8,29.98,WNW,292,0.0,0.0,45,0.00,,---,0.00,VWS V13.01,2013-04-11 02:52:00,
2013-04-10 20:55:00,39.1,19.6,29.99,WNW,293,0.0,0.0,45,0.00,,---,0.00,VWS V13.01,2013-04-11 02:55:00,
2013-04-10 20:57:00,38.9,19.4,29.99,WNW,293,0.0,0.0,45,0.00,,---,0.00,VWS V13.01,2013-04-11 02:57:00,
2013-04-10 21:00:00,38.7,19.7,29.97,WNW,292,0.0,0.0,46,0.00,,---,0.00,VWS V13.01,2013-04-11 03:00:00,
2013-04-10 21:04:00,38.5,19.5,29.98,WNW,293,0.0,0.0,46,0.00,,---,0.00,VWS V13.01,2013-04-11 03:04:00,
2013-04-10 21:06:00,38.4,19.4,29.99,WNW,293,0.0,0.0,46,0.00,,---,0.00,VWS V13.01,2013-04-11 03:06:00,
2013-04-10 21:07:00,38.4,19.9,29.99,WNW,292,0.0,0.0,47,0.00,,---,0.00,VWS V13.01,2013-04-11 03:07:00,
2013-04-10 21:10:00,38.3,19.9,29.99,WNW,292,0.0,0.0,47,0.00,,---,0.00,VWS V13.01,2013-04-11 03:10:00,
2013-04-10 21:13:00,38.3,19.9,29.99,WNW,292,0.0,0.0,47,0.00,,---,0.00,VWS V13.01,2013-04-11 03:13:00,
2013-04-10 21:16:00,38.2,19.8,29.99,WNW,293,0.0,0.0,47,0.00,,---,0.00,VWS V13.01,2013-04-11 03:16:00,
2013-04-10 21:17:00,38.2,19.8,29.99,WNW,293,0.0,0.0,47,0.00,,---,0.00,VWS V13.01,2013-04-11 03:17:00,
2013-04-10 21:20:00,38.0,19.6,29.99,WNW,293,0.0,0.0,47,0.00,,---,0.00,VWS V13.01,2013-04-11 03:20:00,
2013-04-10 21:23:00,37.9,19.0,29.99,WNW,293,2.0,3.0,46,0.00,,---,0.00,VWS V13.01,2013-04-11 03:23:00,
2013-04-10 21:25:00,38.0,19.1,30.00,WNW,292,2.0,3.0,46,0.00,,---,0.00,VWS V13.01,2013-04-11 03:25:00,
2013-04-10 21:26:00,38.0,19.1,30.00,WNW,293,3.0,3.0,46,0.00,,---,0.00,VWS V13.01,2013-04-11 03:26:00,
2013-04-10 21:28:00,38.1,19.2,30.00,WNW,293,3.0,4.0,46,0.00,,---,0.00,VWS V13.01,2013-04-11 03:28:00,
2013-04-10 21:29:00,38.1,19.2,30.00,WNW,293,1.0,4.0,46,0.00,,---,0.00,VWS V13.01,2013-04-11 03:29:00,
2013-04-10 21:31:00,38.1,19.2,30.00,WNW,293,3.0,3.0,46,0.00,,---,0.00,VWS V13.01,2013-04-11 03:31:00,
2013-04-10 21:33:00,38.2,20.7,30.00,WNW,292,2.0,3.0,49,0.00,,---,0.00,VWS V13.01,2013-04-11 03:33:00,
2013-04-10 21:37:00,38.2,19.3,30.00,WNW,292,2.0,3.0,46,0.00,,---,0.00,VWS V13.01,2013-04-11 03:37:00,
2013-04-10 21:38:00,38.1,19.2,30.00,WNW,293,2.0,4.0,46,0.00,,---,0.00,VWS V13.01,2013-04-11 03:38:00,
2013-04-10 21:40:00,38.1,19.2,30.00,WNW,292,2.0,4.0,46,0.00,,---,0.00,VWS V13.01,2013-04-11 03:40:00,
2013-04-10 21:41:00,38.1,19.2,30.00,WNW,293,2.0,4.0,46,0.00,,---,0.00,VWS V13.01,2013-04-11 03:41:00,
2013-04-10 21:44:00,38.0,19.1,30.00,WNW,293,4.0,5.0,46,0.00,,---,0.00,VWS V13.01,2013-04-11 03:44:00,
2013-04-10 21:47:00,37.9,19.0,30.00,WNW,292,4.0,5.0,46,0.00,,---,0.00,VWS V13.01,2013-04-11 03:47:00,
2013-04-10 21:49:00,37.9,18.5,30.00,WNW,292,4.0,6.0,45,0.00,,---,0.00,VWS V13.01,2013-04-11 03:49:00,
2013-04-10 21:51:00,37.9,18.5,30.00,WNW,292,3.0,6.0,45,0.00,,---,0.00,VWS V13.01,2013-04-11 03:51:00,
2013-04-10 21:56:00,37.8,18.4,30.00,WNW,292,2.0,6.0,45,0.00,,---,0.00,VWS V13.01,2013-04-11 03:56:00,
2013-04-10 21:57:00,37.7,18.3,30.00,WNW,292,1.0,6.0,45,0.00,,---,0.00,VWS V13.01,2013-04-11 03:57:00,
2013-04-10 21:59:00,37.7,18.3,30.00,WNW,292,2.0,6.0,45,0.00,,---,0.00,VWS V13.01,2013-04-11 03:59:00,
2013-04-10 22:00:00,37.6,18.2,30.00,WNW,292,2.0,2.0,45,0.00,,---,0.00,VWS V13.01,2013-04-11 04:00:00,
2013-04-10 22:01:00,37.6,18.7,29.98,WNW,292,2.0,2.0,46,0.00,,---,0.00,VWS V13.01,2013-04-11 04:01:00,
2013-04-10 22:02:00,37.6,18.7,29.98,WNW,292,4.0,5.0,46,0.00,,---,0.00,VWS V13.01,2013-04-11 04:02:00,
2013-04-10 22:06:00,37.6,18.7,29.98,WNW,292,3.0,5.0,46,0.00,,---,0.00,VWS V13.01,2013-04-11 04:06:00,
2013-04-10 22:07:00,37.6,18.7,29.98,WNW,292,2.0,5.0,46,0.00,,---,0.00,VWS V13.01,2013-04-11 04:07:00,
2013-04-10 22:09:00,37.7,18.8,29.98,WNW,292,1.0,5.0,46,0.00,,---,0.00,VWS V13.01,2013-04-11 04:09:00,
2013-04-10 22:12:00,37.6,18.7,29.98,WNW,292,1.0,5.0,46,0.00,,---,0.00,VWS V13.01,2013-04-11 04:12:00,
2013-04-10 22:14:00,37.6,18.7,29.98,WNW,292,2.0,5.0,46,0.00,,---,0.00,VWS V13.01,2013-04-11 04:14:00,
2013-04-10 22:17:00,37.5,18.6,29.98,WNW,292,2.0,4.0,46,0.00,,---,0.00,VWS V13.01,2013-04-11 04:17:00,
2013-04-10 22:22:00,37.3,18.4,30.00,WNW,292,1.0,4.0,46,0.00,,---,0.00,VWS V13.01,2013-04-11 04:22:00,
2013-04-10 22:23:00,37.3,18.4,29.99,WNW,292,2.0,4.0,46,0.00,,---,0.00,VWS V13.01,2013-04-11 04:23:00,
2013-04-10 22:28:00,37.2,18.3,29.99,West,271,3.0,8.0,46,0.00,,---,0.00,VWS V13.01,2013-04-11 04:28:00,
2013-04-10 22:29:00,37.2,18.3,29.99,West,271,1.0,8.0,46,0.00,,---,0.00,VWS V13.01,2013-04-11 04:29:00,
2013-04-10 22:30:00,37.1,18.2,29.99,West,271,2.0,3.0,46,0.00,,---,0.00,VWS V13.01,2013-04-11 04:30:00,
2013-04-10 22:34:00,37.2,18.3,29.99,West,271,3.0,5.0,46,0.00,,---,0.00,VWS V13.01,2013-04-11 04:34:00,
2013-04-10 22:35:00,37.2,18.3,29.99,West,271,5.0,6.0,46,0.00,,---,0.00,VWS V13.01,2013-04-11 04:35:00,
2013-04-10 22:37:00,37.3,18.4,29.99,West,270,3.0,7.0,46,0.00,,---,0.00,VWS V13.01,2013-04-11 04:37:00,
2013-04-10 22:40:00,37.4,18.5,30.00,West,270,4.0,7.0,46,0.00,,---,0.00,VWS V13.01,2013-04-11 04:40:00,
2013-04-10 22:42:00,37.4,18.5,30.00,West,270,4.0,7.0,46,0.00,,---,0.00,VWS V13.01,2013-04-11 04:42:00,
2013-04-10 22:44:00,37.4,18.5,30.00,WSW,257,6.0,9.0,46,0.00,,---,0.00,VWS V13.01,2013-04-11 04:44:00,
2013-04-10 22:48:00,37.4,18.5,29.99,WSW,257,4.0,9.0,46,0.00,,---,0.00,VWS V13.01,2013-04-11 04:48:00,
2013-04-10 22:49:00,37.3,18.4,29.99,WSW,257,3.0,9.0,46,0.00,,---,0.00,VWS V13.01,2013-04-11 04:49:00,
2013-04-10 22:53:00,37.1,18.2,30.00,WSW,257,1.0,9.0,46,0.00,,---,0.00,VWS V13.01,2013-04-11 04:53:00,
2013-04-10 22:54:00,37.1,18.2,30.00,WSW,257,2.0,9.0,46,0.00,,---,0.00,VWS V13.01,2013-04-11 04:54:00,
2013-04-10 22:55:00,37.0,18.2,30.00,WSW,257,2.0,9.0,46,0.00,,---,0.00,VWS V13.01,2013-04-11 04:55:00,
2013-04-10 22:57:00,37.0,18.2,30.00,WSW,257,3.0,9.0,46,0.00,,---,0.00,VWS V13.01,2013-04-11 04:57:00,
2013-04-10 22:59:00,36.9,18.1,30.00,WSW,257,3.0,9.0,46,0.00,,---,0.00,VWS V13.01,2013-04-11 04:59:00,
2013-04-10 23:04:00,36.7,18.4,29.99,WSW,257,1.0,4.0,47,0.00,,---,0.00,VWS V13.01,2013-04-11 05:04:00,
2013-04-10 23:05:00,36.6,18.3,29.99,WSW,257,4.0,4.0,47,0.00,,---,0.00,VWS V13.01,2013-04-11 05:05:00,
2013-04-10 23:08:00,36.5,18.2,29.98,WSW,257,2.0,5.0,47,0.00,,---,0.00,VWS V13.01,2013-04-11 05:08:00,
2013-04-10 23:11:00,36.3,18.0,29.98,WSW,257,3.0,5.0,47,0.00,,---,0.00,VWS V13.01,2013-04-11 05:11:00,
2013-04-10 23:12:00,36.3,18.0,29.98,WSW,257,3.0,5.0,47,0.00,,---,0.00,VWS V13.01,2013-04-11 05:12:00,
2013-04-10 23:16:00,36.1,17.8,29.98,WSW,257,1.0,2.0,47,0.00,,---,0.00,VWS V13.01,2013-04-11 05:16:00,
2013-04-10 23:17:00,36.0,17.7,29.98,WSW,257,2.0,3.0,47,0.00,,---,0.00,VWS V13.01,2013-04-11 05:17:00,
2013-04-10 23:18:00,35.9,17.6,29.98,WSW,257,4.0,4.0,47,0.00,,---,0.00,VWS V13.01,2013-04-11 05:18:00,
2013-04-10 23:20:00,35.8,17.6,29.98,WSW,257,4.0,4.0,47,0.00,,---,0.00,VWS V13.01,2013-04-11 05:20:00,
2013-04-10 23:22:00,35.6,17.9,29.98,WSW,257,2.0,4.0,48,0.00,,---,0.00,VWS V13.01,2013-04-11 05:22:00,
2013-04-10 23:23:00,35.6,17.9,29.98,WSW,257,2.0,4.0,48,0.00,,---,0.00,VWS V13.01,2013-04-11 05:23:00,
2013-04-10 23:26:00,35.5,17.8,29.98,WSW,257,3.0,4.0,48,0.00,,---,0.00,VWS V13.01,2013-04-11 05:26:00,
2013-04-10 23:28:00,35.4,17.7,29.99,WSW,257,2.0,4.0,48,0.00,,---,0.00,VWS V13.01,2013-04-11 05:28:00,
2013-04-10 23:29:00,35.4,17.7,29.99,WSW,257,1.0,4.0,48,0.00,,---,0.00,VWS V13.01,2013-04-11 05:29:00,
2013-04-10 23:34:00,35.2,17.5,29.99,WSW,257,1.0,2.0,48,0.00,,---,0.00,VWS V13.01,2013-04-11 05:34:00,
2013-04-10 23:35:00,35.2,17.5,29.99,WSW,257,1.0,2.0,48,0.00,,---,0.00,VWS V13.01,2013-04-11 05:35:00,
2013-04-10 23:37:00,35.1,17.4,29.99,WSW,257,2.0,2.0,48,0.00,,---,0.00,VWS V13.01,2013-04-11 05:37:00,
2013-04-10 23:40:00,35.0,17.3,29.99,WSW,257,1.0,2.0,48,0.00,,---,0.00,VWS V13.01,2013-04-11 05:40:00,
2013-04-10 23:42:00,34.8,17.1,29.99,WSW,257,1.0,2.0,48,0.00,,---,0.00,VWS V13.01,2013-04-11 05:42:00,
2013-04-10 23:44:00,34.7,17.0,29.99,WSW,257,1.0,2.0,48,0.00,,---,0.00,VWS V13.01,2013-04-11 05:44:00,
2013-04-10 23:45:00,34.6,16.9,29.99,WSW,257,0.0,1.0,48,0.00,,---,0.00,VWS V13.01,2013-04-11 05:45:00,
2013-04-10 23:48:00,34.4,17.2,29.99,WSW,257,1.0,2.0,49,0.00,,---,0.00,VWS V13.01,2013-04-11 05:48:00,
2013-04-10 23:49:00,34.4,17.2,29.99,WSW,257,1.0,2.0,49,0.00,,---,0.00,VWS V13.01,2013-04-11 05:49:00,
2013-04-10 23:51:00,34.4,17.2,29.99,WSW,257,1.0,2.0,49,0.00,,---,0.00,VWS V13.01,2013-04-11 05:51:00,
2013-04-10 23:54:00,34.4,17.2,29.99,WSW,257,2.0,3.0,49,0.00,,---,0.00,VWS V13.01,2013-04-11 05:54:00,
2013-04-10 23:56:00,34.3,17.1,29.99,WSW,257,2.0,3.0,49,0.00,,---,0.00,VWS V13.01,2013-04-11 05:56:00,
2013-04-10 23:57:00,34.2,17.0,29.99,WSW,257,0.0,3.0,49,0.00,,---,0.00,VWS V13.01,2013-04-11 05:57:00,